AFR74 LFPG-KRDU

Flight info

Callsign AFR74
Flight time 8h 51m
Altitude 36000
Route ELCOB UT300 SENLO DCT JSY DCT GANTO DCT LARLA DCT RATKA/M084F360 DCT OMOKO DCT 48N015W 47N020W 45N030W 44N040W/M084F380 42N050W/M084F400 42N060W DCT DOVEY/N0476F400 DCT SAILE DCT ACK Q430 RIFLE Q167 ZJAAY TAQLE3
Aircraft B772/H-SDE2E3FGHIJ5LORVWXY/LB1D1

Departure

Time 2026-05-06 14:23
Airport Charles de Gaulle International Airport (LFPG)

Arrival

Time 2026-05-06 23:14
Airport Raleigh-Durham International Airport (KRDU)
Time Latitude Longitude Altitude Speed Heading
2026-05-06 13:57 49.00286 2.58625 408 ft 0 kts 265°
2026-05-06 14:15 49.00287 2.58627 408 ft 1 kts 265°
2026-05-06 14:15 49.00288 2.58650 408 ft 2 kts 265°
2026-05-06 14:16 49.00289 2.58672 408 ft 2 kts 265°
2026-05-06 14:16 49.00290 2.58687 408 ft 2 kts 264°
2026-05-06 14:16 49.00294 2.58709 408 ft 2 kts 240°
2026-05-06 14:16 49.00303 2.58726 408 ft 2 kts 220°
2026-05-06 14:17 49.00315 2.58739 408 ft 2 kts 201°
2026-05-06 14:17 49.00330 2.58744 408 ft 2 kts 182°
2026-05-06 14:17 49.00337 2.58744 408 ft 1 kts 175°
2026-05-06 14:17 49.00338 2.58744 408 ft 0 kts 175°
2026-05-06 14:19 49.00335 2.58744 408 ft 3 kts 175°
2026-05-06 14:19 49.00266 2.58753 408 ft 16 kts 175°
2026-05-06 14:20 49.00119 2.58771 408 ft 22 kts 174°
2026-05-06 14:20 49.00044 2.58936 408 ft 21 kts 85°
2026-05-06 14:20 49.00052 2.59160 408 ft 20 kts 87°
2026-05-06 14:20 49.00066 2.59379 408 ft 20 kts 82°
2026-05-06 14:21 49.00079 2.59597 408 ft 21 kts 85°
2026-05-06 14:21 49.00093 2.59823 408 ft 22 kts 85°
2026-05-06 14:21 49.00107 2.60059 408 ft 22 kts 86°
2026-05-06 14:21 49.00028 2.60230 408 ft 22 kts 172°
2026-05-06 14:22 48.99874 2.60207 408 ft 22 kts 200°
2026-05-06 14:22 48.99827 2.60099 408 ft 0 kts 264°
2026-05-06 14:22 48.99813 2.59832 408 ft 63 kts 267°
2026-05-06 14:22 48.99758 2.58790 408 ft 131 kts 266°
2026-05-06 14:23 48.99668 2.57091 417 ft 183 kts 268°
2026-05-06 14:23 48.99572 2.55092 952 ft 190 kts 268°
2026-05-06 14:23 48.99454 2.53139 1811 ft 185 kts 268°
2026-05-06 14:23 48.99344 2.51118 2185 ft 200 kts 268°
2026-05-06 14:24 48.99229 2.48942 2559 ft 216 kts 267°
2026-05-06 14:24 48.99100 2.46587 2997 ft 232 kts 267°
2026-05-06 14:24 48.98963 2.44053 3450 ft 248 kts 267°
2026-05-06 14:24 48.98816 2.41367 3993 ft 260 kts 267°
2026-05-06 14:25 48.98663 2.38630 4677 ft 265 kts 267°
2026-05-06 14:25 48.98504 2.35793 5414 ft 270 kts 268°
2026-05-06 14:25 48.98344 2.32933 6137 ft 274 kts 267°
2026-05-06 14:25 48.98187 2.30135 6820 ft 277 kts 267°
2026-05-06 14:26 48.98024 2.27212 7513 ft 280 kts 267°
2026-05-06 14:26 48.97889 2.24801 7966 ft 283 kts 267°
2026-05-06 14:26 48.97735 2.22079 8675 ft 281 kts 266°
2026-05-06 14:26 48.97572 2.19205 9375 ft 282 kts 266°
2026-05-06 14:27 48.97401 2.16187 9972 ft 287 kts 266°
2026-05-06 14:27 48.97226 2.13129 10369 ft 300 kts 266°
2026-05-06 14:27 48.97040 2.09889 10663 ft 316 kts 266°
2026-05-06 14:27 48.96844 2.06488 10982 ft 332 kts 266°
2026-05-06 14:28 48.96635 2.02896 11314 ft 347 kts 265°
2026-05-06 14:28 48.96418 1.99193 11652 ft 361 kts 265°
2026-05-06 14:28 48.96191 1.95327 12017 ft 374 kts 265°
2026-05-06 14:28 48.95963 1.91324 12559 ft 381 kts 267°
2026-05-06 14:29 48.96063 1.87314 13170 ft 384 kts 278°
2026-05-06 14:29 48.96483 1.83299 13798 ft 388 kts 280°
2026-05-06 14:29 48.96939 1.79249 14424 ft 392 kts 280°
2026-05-06 14:29 48.97396 1.75167 15053 ft 395 kts 280°
2026-05-06 14:30 48.97858 1.71036 15674 ft 399 kts 280°
2026-05-06 14:30 48.98320 1.66880 16281 ft 403 kts 280°
2026-05-06 14:30 48.98785 1.62684 16879 ft 406 kts 279°
2026-05-06 14:30 48.99249 1.58446 17469 ft 410 kts 279°
2026-05-06 14:31 48.99715 1.54176 18048 ft 413 kts 279°
2026-05-06 14:31 49.00185 1.49863 18622 ft 417 kts 279°
2026-05-06 14:31 49.00656 1.45522 19193 ft 420 kts 279°
2026-05-06 14:31 49.01130 1.41134 19741 ft 424 kts 279°
2026-05-06 14:32 49.01612 1.36661 20280 ft 427 kts 279°
2026-05-06 14:32 49.02092 1.32191 20810 ft 431 kts 279°
2026-05-06 14:32 49.02572 1.27699 21332 ft 434 kts 279°
2026-05-06 14:32 49.03021 1.23445 21805 ft 437 kts 277°
2026-05-06 14:33 49.03272 1.18983 22274 ft 440 kts 273°
2026-05-06 14:33 49.03422 1.14322 22760 ft 444 kts 272°
2026-05-06 14:33 49.03566 1.09638 23241 ft 447 kts 272°
2026-05-06 14:33 49.03708 1.04910 23708 ft 450 kts 272°
2026-05-06 14:34 49.03851 1.00149 24157 ft 454 kts 272°
2026-05-06 14:34 49.03992 0.95348 24594 ft 457 kts 272°
2026-05-06 14:34 49.04134 0.90499 25029 ft 461 kts 272°
2026-05-06 14:34 49.04274 0.85625 25477 ft 464 kts 272°
2026-05-06 14:35 49.04414 0.80717 25933 ft 466 kts 272°
2026-05-06 14:35 49.04552 0.75760 26375 ft 469 kts 272°
2026-05-06 14:35 49.04689 0.70801 26804 ft 472 kts 272°
2026-05-06 14:35 49.04825 0.65806 27229 ft 475 kts 272°
2026-05-06 14:36 49.04959 0.60793 27648 ft 477 kts 272°
2026-05-06 14:36 49.05092 0.55749 28059 ft 480 kts 272°
2026-05-06 14:36 49.05223 0.50667 28468 ft 482 kts 272°
2026-05-06 14:36 49.05354 0.45552 28843 ft 485 kts 272°
2026-05-06 14:37 49.05481 0.40425 29212 ft 487 kts 272°
2026-05-06 14:37 49.05607 0.35275 29575 ft 490 kts 272°
2026-05-06 14:37 49.05734 0.30015 29934 ft 492 kts 272°
2026-05-06 14:37 49.05859 0.24750 30322 ft 494 kts 272°
2026-05-06 14:38 49.05979 0.19550 30813 ft 492 kts 272°
2026-05-06 14:38 49.06087 0.14819 31317 ft 490 kts 272°
2026-05-06 14:38 49.06204 0.09595 31856 ft 487 kts 272°
2026-05-06 14:38 49.06318 0.04354 32323 ft 486 kts 272°
2026-05-06 14:39 49.06467 -0.02626 32905 ft 485 kts 272°
2026-05-06 14:39 49.06540 -0.06103 33197 ft 485 kts 272°
2026-05-06 14:39 49.06647 -0.11322 33646 ft 483 kts 272°
2026-05-06 14:39 49.06750 -0.16459 34090 ft 482 kts 272°
2026-05-06 14:40 49.06852 -0.21676 34559 ft 480 kts 272°
2026-05-06 14:40 49.06949 -0.26693 35014 ft 477 kts 272°
2026-05-06 14:40 49.07044 -0.31767 35464 ft 475 kts 273°
2026-05-06 14:40 49.07137 -0.36797 35841 ft 473 kts 273°
2026-05-06 14:41 49.07227 -0.41779 36021 ft 476 kts 273°
2026-05-06 14:41 49.07315 -0.46801 36048 ft 477 kts 273°
2026-05-06 14:41 49.07487 -0.56906 35996 ft 473 kts 273°
2026-05-06 14:42 49.07648 -0.66907 35986 ft 474 kts 272°
2026-05-06 14:42 49.07801 -0.76920 35997 ft 473 kts 272°
2026-05-06 14:43 49.07945 -0.86977 35998 ft 473 kts 272°
2026-05-06 14:43 49.08080 -0.96949 35997 ft 473 kts 272°
2026-05-06 14:44 49.08206 -1.06970 35996 ft 473 kts 272°
2026-05-06 14:45 49.08971 -1.21897 35993 ft 472 kts 284°
2026-05-06 14:45 49.10544 -1.31603 35994 ft 472 kts 285°
2026-05-06 14:46 49.12116 -1.41291 35994 ft 471 kts 285°
2026-05-06 14:46 49.13685 -1.51043 35993 ft 471 kts 285°
2026-05-06 14:47 49.15229 -1.60724 35994 ft 471 kts 285°
2026-05-06 14:47 49.16773 -1.70459 35995 ft 471 kts 284°
2026-05-06 14:48 49.18306 -1.80193 35995 ft 471 kts 284°
2026-05-06 14:48 49.19828 -1.89917 35996 ft 471 kts 284°
2026-05-06 14:49 49.21336 -1.99618 35997 ft 471 kts 284°
2026-05-06 14:49 49.22465 -2.09478 36000 ft 472 kts 277°
2026-05-06 14:50 49.23185 -2.19455 35999 ft 471 kts 277°
2026-05-06 14:50 49.23887 -2.29334 36000 ft 471 kts 277°
2026-05-06 14:51 49.24589 -2.39332 36000 ft 471 kts 277°
2026-05-06 14:51 49.25274 -2.49204 36001 ft 470 kts 277°
2026-05-06 14:52 49.25956 -2.59168 36002 ft 470 kts 277°
2026-05-06 14:52 49.26630 -2.69123 36003 ft 470 kts 276°
2026-05-06 14:53 49.27292 -2.79044 36004 ft 470 kts 276°
2026-05-06 14:53 49.27946 -2.88956 36003 ft 470 kts 276°
2026-05-06 14:54 49.28588 -2.98824 36002 ft 469 kts 276°
2026-05-06 14:54 49.29227 -3.08781 36003 ft 469 kts 276°
2026-05-06 14:55 49.29853 -3.18678 36003 ft 469 kts 276°
2026-05-06 14:55 49.30473 -3.28610 36003 ft 468 kts 276°
2026-05-06 14:56 49.31082 -3.38494 36003 ft 468 kts 276°
2026-05-06 14:56 49.31680 -3.48354 36003 ft 468 kts 276°
2026-05-06 14:57 49.32274 -3.58276 36002 ft 467 kts 276°
2026-05-06 14:57 49.32858 -3.68183 36003 ft 467 kts 275°
2026-05-06 14:58 49.33428 -3.78009 36003 ft 466 kts 275°
2026-05-06 14:58 49.33994 -3.87900 36003 ft 466 kts 275°
2026-05-06 14:59 49.34549 -3.97743 36002 ft 465 kts 275°
2026-05-06 14:59 49.35097 -4.07629 36001 ft 465 kts 275°
2026-05-06 15:00 49.35634 -4.17454 36000 ft 464 kts 275°
2026-05-06 15:00 49.36163 -4.27287 36001 ft 463 kts 275°
2026-05-06 15:01 49.36683 -4.37112 36003 ft 463 kts 275°
2026-05-06 15:01 49.37196 -4.46966 36005 ft 463 kts 275°
2026-05-06 15:02 49.37699 -4.56795 36005 ft 463 kts 275°
2026-05-06 15:02 49.38195 -4.66644 36006 ft 464 kts 275°
2026-05-06 15:03 49.38683 -4.76509 36006 ft 464 kts 275°
2026-05-06 15:03 49.39162 -4.86373 36005 ft 464 kts 275°
2026-05-06 15:04 49.39631 -4.96206 36003 ft 464 kts 274°
2026-05-06 15:04 49.39717 -5.06062 36005 ft 464 kts 270°
2026-05-06 15:05 49.39712 -5.15907 36005 ft 464 kts 270°
2026-05-06 15:05 49.39697 -5.25755 36007 ft 464 kts 270°
2026-05-06 15:06 49.39672 -5.35670 36007 ft 463 kts 270°
2026-05-06 15:06 49.39639 -5.45486 36007 ft 463 kts 270°
2026-05-06 15:07 49.39597 -5.55355 36008 ft 463 kts 270°
2026-05-06 15:07 49.39548 -5.65228 36009 ft 463 kts 270°
2026-05-06 15:08 49.39489 -5.75037 36012 ft 463 kts 270°
2026-05-06 15:08 49.39422 -5.84919 36012 ft 462 kts 270°
2026-05-06 15:09 49.39347 -5.94755 36016 ft 462 kts 270°
2026-05-06 15:09 49.39264 -6.04556 36028 ft 461 kts 270°
2026-05-06 15:10 49.39173 -6.14356 36043 ft 459 kts 270°
2026-05-06 15:10 49.39074 -6.24103 36033 ft 456 kts 269°
2026-05-06 15:11 49.38968 -6.33757 36017 ft 456 kts 269°
2026-05-06 15:11 49.38853 -6.43491 36016 ft 456 kts 269°
2026-05-06 15:12 49.38730 -6.53173 36016 ft 457 kts 269°
2026-05-06 15:12 49.38599 -6.62866 36020 ft 457 kts 269°
2026-05-06 15:13 49.38459 -6.72610 36023 ft 457 kts 269°
2026-05-06 15:13 49.38311 -6.82325 36022 ft 457 kts 269°
2026-05-06 15:14 49.38155 -6.92069 36022 ft 457 kts 269°
2026-05-06 15:14 49.37991 -7.01804 36021 ft 457 kts 269°
2026-05-06 15:15 49.37913 -7.11553 36018 ft 457 kts 274°
2026-05-06 15:15 49.39025 -7.21086 36021 ft 458 kts 282°
2026-05-06 15:16 49.40403 -7.30614 36020 ft 457 kts 282°
2026-05-06 15:16 49.41762 -7.40154 36020 ft 457 kts 282°
2026-05-06 15:17 49.43100 -7.49671 36020 ft 458 kts 282°
2026-05-06 15:17 49.44433 -7.59242 36020 ft 458 kts 282°
2026-05-06 15:18 49.45755 -7.68806 36022 ft 458 kts 281°
2026-05-06 15:18 49.47062 -7.78341 36023 ft 458 kts 281°
2026-05-06 15:19 49.48373 -7.87969 36022 ft 458 kts 281°
2026-05-06 15:19 49.49443 -7.97600 36020 ft 457 kts 273°
2026-05-06 15:20 49.48884 -8.07245 36024 ft 458 kts 258°
2026-05-06 15:20 49.47510 -8.16809 36022 ft 458 kts 258°
2026-05-06 15:21 49.46115 -8.26310 36022 ft 458 kts 258°
2026-05-06 15:21 49.44705 -8.35818 36022 ft 458 kts 258°
2026-05-06 15:22 49.43276 -8.45377 36023 ft 459 kts 258°
2026-05-06 15:22 49.41838 -8.54927 36022 ft 459 kts 258°
2026-05-06 15:23 49.40387 -8.64500 36020 ft 459 kts 258°
2026-05-06 15:23 49.38939 -8.73993 36020 ft 459 kts 257°
2026-05-06 15:24 49.37472 -8.83554 36018 ft 460 kts 257°
2026-05-06 15:24 49.36009 -8.93035 36016 ft 460 kts 257°
2026-05-06 15:25 49.34529 -9.02566 36015 ft 460 kts 257°
2026-05-06 15:25 49.33047 -9.12051 36015 ft 460 kts 257°
2026-05-06 15:26 49.31553 -9.21565 36014 ft 460 kts 257°
2026-05-06 15:26 49.30047 -9.31091 36014 ft 461 kts 257°
2026-05-06 15:27 49.28542 -9.40559 36014 ft 461 kts 257°
2026-05-06 15:27 49.27016 -9.50106 36014 ft 462 kts 257°
2026-05-06 15:28 49.25489 -9.59602 36014 ft 462 kts 257°
2026-05-06 15:28 49.23955 -9.69089 36016 ft 462 kts 256°
2026-05-06 15:29 49.22406 -9.78615 36020 ft 462 kts 256°
2026-05-06 15:29 49.20847 -9.88152 36025 ft 463 kts 256°
2026-05-06 15:30 49.19285 -9.97646 36026 ft 463 kts 256°
2026-05-06 15:30 49.17714 -10.07142 36024 ft 463 kts 256°
2026-05-06 15:31 49.16132 -10.16650 36013 ft 463 kts 256°
2026-05-06 15:31 49.14542 -10.26159 36005 ft 464 kts 256°
2026-05-06 15:32 49.12138 -10.40435 36005 ft 464 kts 256°
2026-05-06 15:32 49.10526 -10.49938 36004 ft 464 kts 256°
2026-05-06 15:33 49.08907 -10.59434 36004 ft 464 kts 256°
2026-05-06 15:33 49.07272 -10.68968 36007 ft 464 kts 255°
2026-05-06 15:34 49.05631 -10.78485 36014 ft 464 kts 255°
2026-05-06 15:34 49.03991 -10.87950 36017 ft 464 kts 255°
2026-05-06 15:35 49.02328 -10.97494 36017 ft 465 kts 255°
2026-05-06 15:35 49.00663 -11.06999 36017 ft 465 kts 255°
2026-05-06 15:36 48.98988 -11.16511 36016 ft 465 kts 255°
2026-05-06 15:36 48.97310 -11.25984 36017 ft 465 kts 255°
2026-05-06 15:37 48.95615 -11.35509 36017 ft 466 kts 255°
2026-05-06 15:37 48.93906 -11.45059 36017 ft 466 kts 255°
2026-05-06 15:38 48.92186 -11.54617 36017 ft 466 kts 255°
2026-05-06 15:38 48.90483 -11.64036 36018 ft 466 kts 255°
2026-05-06 15:39 48.88753 -11.73547 36020 ft 466 kts 254°
2026-05-06 15:39 48.87025 -11.83006 36021 ft 466 kts 254°
2026-05-06 15:40 48.85289 -11.92457 36021 ft 466 kts 254°
2026-05-06 15:40 48.83367 -12.01826 36024 ft 466 kts 249°
2026-05-06 15:41 48.81001 -12.10934 36022 ft 466 kts 249°
2026-05-06 15:41 48.78598 -12.20076 36007 ft 467 kts 249°
2026-05-06 15:42 48.76199 -12.29151 36005 ft 468 kts 249°
2026-05-06 15:42 48.73773 -12.38278 36020 ft 469 kts 249°
2026-05-06 15:43 48.71315 -12.47484 36021 ft 469 kts 249°
2026-05-06 15:43 48.68867 -12.56616 36021 ft 469 kts 249°
2026-05-06 15:44 48.66413 -12.65732 36021 ft 469 kts 248°
2026-05-06 15:44 48.63954 -12.74828 36021 ft 469 kts 248°
2026-05-06 15:45 48.61496 -12.83890 36020 ft 469 kts 248°
2026-05-06 15:45 48.59014 -12.93002 36018 ft 469 kts 248°
2026-05-06 15:46 48.56523 -13.02114 36018 ft 470 kts 248°
2026-05-06 15:46 48.54029 -13.11199 36016 ft 471 kts 248°
2026-05-06 15:47 48.51529 -13.20270 36016 ft 471 kts 248°
2026-05-06 15:47 48.49012 -13.29369 36014 ft 472 kts 248°
2026-05-06 15:48 48.46472 -13.38517 36014 ft 472 kts 248°
2026-05-06 15:48 48.43956 -13.47542 36014 ft 472 kts 248°
2026-05-06 15:49 48.41400 -13.56678 36014 ft 471 kts 249°
2026-05-06 15:49 48.38856 -13.65734 36013 ft 471 kts 248°
2026-05-06 15:50 48.36321 -13.74726 36011 ft 471 kts 248°
2026-05-06 15:50 48.33752 -13.83804 36011 ft 471 kts 248°
2026-05-06 15:51 48.31192 -13.92812 36012 ft 472 kts 248°
2026-05-06 15:51 48.28623 -14.01824 36016 ft 472 kts 248°
2026-05-06 15:52 48.26032 -14.10875 36016 ft 471 kts 248°
2026-05-06 15:52 48.23450 -14.19862 36020 ft 471 kts 248°
2026-05-06 15:53 48.20854 -14.28866 36020 ft 471 kts 248°
2026-05-06 15:53 48.18256 -14.37843 36025 ft 472 kts 248°
2026-05-06 15:54 48.15636 -14.46858 36026 ft 472 kts 248°
2026-05-06 15:54 48.13021 -14.55828 36027 ft 472 kts 248°
2026-05-06 15:55 48.10401 -14.64781 36028 ft 473 kts 248°
2026-05-06 15:55 48.07757 -14.73782 36030 ft 474 kts 248°
2026-05-06 15:56 48.05103 -14.82784 36031 ft 474 kts 248°
2026-05-06 15:56 48.02444 -14.91771 36033 ft 475 kts 248°
2026-05-06 15:57 47.99871 -15.00758 36035 ft 474 kts 253°
2026-05-06 15:57 47.98150 -15.10221 36033 ft 472 kts 258°
2026-05-06 15:58 47.96521 -15.19624 36031 ft 471 kts 258°
2026-05-06 15:58 47.94861 -15.29076 36039 ft 471 kts 258°
2026-05-06 15:59 47.93195 -15.38474 36041 ft 471 kts 258°
2026-05-06 15:59 47.91510 -15.47903 36041 ft 471 kts 258°
2026-05-06 16:00 47.89822 -15.57301 36040 ft 472 kts 258°
2026-05-06 16:00 47.88116 -15.66736 36036 ft 472 kts 258°
2026-05-06 16:01 47.86401 -15.76171 36038 ft 473 kts 258°
2026-05-06 16:01 47.84690 -15.85534 36039 ft 473 kts 258°
2026-05-06 16:02 47.82951 -15.94996 36039 ft 473 kts 258°
2026-05-06 16:02 47.81223 -16.04353 36040 ft 473 kts 258°
2026-05-06 16:03 47.79477 -16.13754 36041 ft 473 kts 258°
2026-05-06 16:03 47.77726 -16.23148 36044 ft 473 kts 258°
2026-05-06 16:04 47.75969 -16.32519 36046 ft 473 kts 258°
2026-05-06 16:04 47.74195 -16.41940 36048 ft 473 kts 258°
2026-05-06 16:05 47.72428 -16.51272 36049 ft 472 kts 258°
2026-05-06 16:05 47.70639 -16.60672 36054 ft 472 kts 258°
2026-05-06 16:06 47.68850 -16.70023 36056 ft 472 kts 257°
2026-05-06 16:06 47.67051 -16.79385 36060 ft 471 kts 257°
2026-05-06 16:07 47.65257 -16.88678 36061 ft 470 kts 257°
2026-05-06 16:07 47.63456 -16.97956 36062 ft 470 kts 258°
2026-05-06 16:08 47.61647 -17.07229 36063 ft 469 kts 258°
2026-05-06 16:08 47.59835 -17.16471 36063 ft 469 kts 258°
2026-05-06 16:09 47.58020 -17.25693 36064 ft 468 kts 258°
2026-05-06 16:09 47.56202 -17.34887 36063 ft 468 kts 258°
2026-05-06 16:10 47.54366 -17.44125 36063 ft 467 kts 258°
2026-05-06 16:10 47.52541 -17.53262 36061 ft 467 kts 258°
2026-05-06 16:11 47.50697 -17.62453 36062 ft 466 kts 258°
2026-05-06 16:11 47.48846 -17.71633 36063 ft 466 kts 257°
2026-05-06 16:12 47.47004 -17.80730 36064 ft 466 kts 257°
2026-05-06 16:12 47.45140 -17.89890 36062 ft 466 kts 257°
2026-05-06 16:13 47.43279 -17.98999 36062 ft 466 kts 257°
2026-05-06 16:13 47.41410 -18.08099 36070 ft 465 kts 257°
2026-05-06 16:14 47.39533 -18.17197 36071 ft 464 kts 257°
2026-05-06 16:14 47.37655 -18.26262 36064 ft 464 kts 257°
2026-05-06 16:15 47.35768 -18.35327 36064 ft 464 kts 257°
2026-05-06 16:15 47.33868 -18.44412 36063 ft 463 kts 257°
2026-05-06 16:16 47.31978 -18.53413 36064 ft 463 kts 257°
2026-05-06 16:16 47.30069 -18.62461 36065 ft 463 kts 257°
2026-05-06 16:17 47.28149 -18.71525 36070 ft 463 kts 257°
2026-05-06 16:17 47.26239 -18.80495 36071 ft 462 kts 257°
2026-05-06 16:18 47.24316 -18.89494 36072 ft 462 kts 256°
2026-05-06 16:18 47.22389 -18.98468 36073 ft 461 kts 257°
2026-05-06 16:19 47.20452 -19.07448 36074 ft 461 kts 257°
2026-05-06 16:19 47.18523 -19.16349 36074 ft 461 kts 257°
2026-05-06 16:20 47.16577 -19.25296 36074 ft 460 kts 257°
2026-05-06 16:20 47.14622 -19.34248 36074 ft 460 kts 257°
2026-05-06 16:21 47.12666 -19.43164 36075 ft 460 kts 257°
2026-05-06 16:21 47.10709 -19.52049 36075 ft 459 kts 257°
2026-05-06 16:22 47.08743 -19.60930 36076 ft 459 kts 257°
2026-05-06 16:22 47.06774 -19.69794 36080 ft 459 kts 256°
2026-05-06 16:23 47.04795 -19.78663 36081 ft 458 kts 256°
2026-05-06 16:23 47.02815 -19.87501 36082 ft 458 kts 256°
2026-05-06 16:24 47.00820 -19.96358 36084 ft 457 kts 256°
2026-05-06 16:24 46.99037 -20.05197 36086 ft 453 kts 262°
2026-05-06 16:25 46.97751 -20.14238 36086 ft 454 kts 262°
2026-05-06 16:25 46.96432 -20.23238 36094 ft 451 kts 262°
2026-05-06 16:26 46.95100 -20.32110 36095 ft 447 kts 262°
2026-05-06 16:26 46.93753 -20.40959 36090 ft 446 kts 262°
2026-05-06 16:27 46.92392 -20.49806 36096 ft 446 kts 262°
2026-05-06 16:27 46.91032 -20.58585 36101 ft 445 kts 262°
2026-05-06 16:28 46.89657 -20.67397 36100 ft 445 kts 262°
2026-05-06 16:28 46.88286 -20.76128 36100 ft 444 kts 262°
2026-05-06 16:29 46.86898 -20.84922 36101 ft 443 kts 262°
2026-05-06 16:29 46.85507 -20.93682 36102 ft 442 kts 262°
2026-05-06 16:30 46.84355 -21.00907 36102 ft 442 kts 262°
2026-05-06 16:30 46.82723 -21.11079 36103 ft 440 kts 262°
2026-05-06 16:31 46.81338 -21.19668 36103 ft 438 kts 262°
2026-05-06 16:31 46.79937 -21.28309 36104 ft 437 kts 262°
2026-05-06 16:32 46.78543 -21.36857 36104 ft 435 kts 262°
2026-05-06 16:32 46.77139 -21.45431 36104 ft 434 kts 262°
2026-05-06 16:33 46.75735 -21.53960 36104 ft 434 kts 262°
2026-05-06 16:34 46.73622 -21.66716 36109 ft 432 kts 261°
2026-05-06 16:34 46.72213 -21.75172 36115 ft 431 kts 261°
2026-05-06 16:35 46.70792 -21.83651 36115 ft 430 kts 261°
2026-05-06 16:35 46.69134 -21.93498 36115 ft 429 kts 261°
2026-05-06 16:36 46.67948 -22.00505 36115 ft 429 kts 261°
2026-05-06 16:36 46.66512 -22.08885 36113 ft 429 kts 261°
2026-05-06 16:37 46.65080 -22.17280 36116 ft 426 kts 261°
2026-05-06 16:37 46.63660 -22.25570 36115 ft 424 kts 261°
2026-05-06 16:38 46.62236 -22.33847 36115 ft 424 kts 261°
2026-05-06 16:38 46.60794 -22.42157 36114 ft 424 kts 261°
2026-05-06 16:39 46.59356 -22.50398 36115 ft 424 kts 261°
2026-05-06 16:39 46.57906 -22.58715 36113 ft 424 kts 261°
2026-05-06 16:40 46.56466 -22.66937 36121 ft 424 kts 260°
2026-05-06 16:40 46.54999 -22.75246 36125 ft 425 kts 260°
2026-05-06 16:41 46.53531 -22.83556 36131 ft 424 kts 260°
2026-05-06 16:41 46.52063 -22.91792 36131 ft 423 kts 260°
2026-05-06 16:42 46.50586 -23.00064 36131 ft 423 kts 260°
2026-05-06 16:42 46.49110 -23.08258 36135 ft 423 kts 259°
2026-05-06 16:43 46.47615 -23.16521 36144 ft 423 kts 259°
2026-05-06 16:43 46.46121 -23.24756 36155 ft 424 kts 259°
2026-05-06 16:44 46.44627 -23.32950 36158 ft 423 kts 259°
2026-05-06 16:44 46.43127 -23.41147 36157 ft 423 kts 259°
2026-05-06 16:45 46.41356 -23.50777 36157 ft 423 kts 259°
2026-05-06 16:45 46.40093 -23.57615 36157 ft 424 kts 259°
2026-05-06 16:46 46.38563 -23.65859 36158 ft 423 kts 258°
2026-05-06 16:46 46.37033 -23.74073 36169 ft 424 kts 258°
2026-05-06 16:47 46.35504 -23.82243 36173 ft 424 kts 258°
2026-05-06 16:47 46.33958 -23.90468 36177 ft 424 kts 258°
2026-05-06 16:48 46.32405 -23.98698 36177 ft 425 kts 258°
2026-05-06 16:48 46.30854 -24.06876 36177 ft 425 kts 258°
2026-05-06 16:49 46.29288 -24.15096 36176 ft 424 kts 258°
2026-05-06 16:49 46.27722 -24.23286 36177 ft 424 kts 258°
2026-05-06 16:50 46.26149 -24.31471 36177 ft 423 kts 258°
2026-05-06 16:50 46.24582 -24.39597 36177 ft 423 kts 258°
2026-05-06 16:51 46.23001 -24.47762 36177 ft 423 kts 258°
2026-05-06 16:51 46.21415 -24.55915 36177 ft 423 kts 257°
2026-05-06 16:52 46.19821 -24.64074 36177 ft 422 kts 257°
2026-05-06 16:52 46.18230 -24.72187 36187 ft 423 kts 257°
2026-05-06 16:53 46.16631 -24.80303 36187 ft 422 kts 257°
2026-05-06 16:53 46.15028 -24.88405 36187 ft 422 kts 256°
2026-05-06 16:54 46.13411 -24.96543 36186 ft 421 kts 256°
2026-05-06 16:54 46.11807 -25.04585 36185 ft 421 kts 256°
2026-05-06 16:55 46.10185 -25.12683 36185 ft 420 kts 256°
2026-05-06 16:55 46.08563 -25.20747 36184 ft 420 kts 256°
2026-05-06 16:56 46.06945 -25.28757 36186 ft 420 kts 256°
2026-05-06 16:56 46.05304 -25.36850 36189 ft 419 kts 256°
2026-05-06 16:57 46.03677 -25.44840 36198 ft 419 kts 256°
2026-05-06 16:57 46.02043 -25.52837 36206 ft 418 kts 256°
2026-05-06 16:58 46.00398 -25.60853 36207 ft 419 kts 255°
2026-05-06 16:58 45.98742 -25.68891 36214 ft 419 kts 255°
2026-05-06 16:59 45.97091 -25.76874 36215 ft 419 kts 255°
2026-05-06 16:59 45.95424 -25.84898 36218 ft 419 kts 255°
2026-05-06 17:00 45.93760 -25.92878 36219 ft 419 kts 255°
2026-05-06 17:00 45.92086 -26.00875 36219 ft 419 kts 254°
2026-05-06 17:01 45.90415 -26.08827 36218 ft 419 kts 254°
2026-05-06 17:01 45.88726 -26.16833 36219 ft 419 kts 255°
2026-05-06 17:02 45.87033 -26.24823 36218 ft 419 kts 255°
2026-05-06 17:02 45.85344 -26.32768 36217 ft 419 kts 254°
2026-05-06 17:03 45.83643 -26.40737 36217 ft 419 kts 254°
2026-05-06 17:03 45.81937 -26.48699 36216 ft 419 kts 254°
2026-05-06 17:04 45.80229 -26.56642 36215 ft 418 kts 254°
2026-05-06 17:04 45.78515 -26.64579 36215 ft 418 kts 254°
2026-05-06 17:05 45.76802 -26.72480 36225 ft 418 kts 253°
2026-05-06 17:05 45.75087 -26.80365 36225 ft 417 kts 253°
2026-05-06 17:06 45.73357 -26.88289 36225 ft 417 kts 253°
2026-05-06 17:06 45.71623 -26.96197 36225 ft 417 kts 253°
2026-05-06 17:07 45.69892 -27.04064 36224 ft 417 kts 253°
2026-05-06 17:07 45.68154 -27.11931 36224 ft 417 kts 253°
2026-05-06 17:08 45.66409 -27.19803 36224 ft 417 kts 253°
2026-05-06 17:08 45.64648 -27.27713 36223 ft 417 kts 253°
2026-05-06 17:09 45.62899 -27.35549 36218 ft 417 kts 253°
2026-05-06 17:09 45.61133 -27.43424 36212 ft 417 kts 253°
2026-05-06 17:10 45.59366 -27.51277 36201 ft 417 kts 252°
2026-05-06 17:10 45.57594 -27.59126 36190 ft 417 kts 252°
2026-05-06 17:11 45.55811 -27.66992 36195 ft 417 kts 252°
2026-05-06 17:11 45.54034 -27.74807 36198 ft 417 kts 252°
2026-05-06 17:12 45.52243 -27.82647 36196 ft 417 kts 252°
2026-05-06 17:12 45.50451 -27.90470 36195 ft 416 kts 252°
2026-05-06 17:13 45.48660 -27.98257 36193 ft 416 kts 252°
2026-05-06 17:13 45.46854 -28.06078 36189 ft 416 kts 251°
2026-05-06 17:14 45.45038 -28.13923 36188 ft 417 kts 251°
2026-05-06 17:14 45.43226 -28.21715 36187 ft 417 kts 251°
2026-05-06 17:15 45.41410 -28.29501 36186 ft 417 kts 251°
2026-05-06 17:15 45.39578 -28.37324 36184 ft 417 kts 251°
2026-05-06 17:16 45.37750 -28.45103 36182 ft 418 kts 251°
2026-05-06 17:16 45.35904 -28.52932 36181 ft 418 kts 251°
2026-05-06 17:17 45.34054 -28.60751 36179 ft 418 kts 251°
2026-05-06 17:17 45.32203 -28.68546 36187 ft 418 kts 251°
2026-05-06 17:18 45.30344 -28.76345 36187 ft 418 kts 251°
2026-05-06 17:18 45.28482 -28.84134 36186 ft 418 kts 250°
2026-05-06 17:19 45.26612 -28.91928 36185 ft 418 kts 250°
2026-05-06 17:19 45.24739 -28.99705 36183 ft 418 kts 250°
2026-05-06 17:20 45.22862 -29.07471 36182 ft 419 kts 250°
2026-05-06 17:20 45.20969 -29.15279 36180 ft 419 kts 250°
2026-05-06 17:21 45.19080 -29.23042 36174 ft 419 kts 250°
2026-05-06 17:21 45.17173 -29.30852 36168 ft 419 kts 250°
2026-05-06 17:22 45.15277 -29.38588 36167 ft 419 kts 250°
2026-05-06 17:22 45.13361 -29.46385 36166 ft 419 kts 250°
2026-05-06 17:23 45.11441 -29.54166 36165 ft 419 kts 250°
2026-05-06 17:23 45.09531 -29.61883 36164 ft 419 kts 250°
2026-05-06 17:24 45.07599 -29.69661 36172 ft 419 kts 250°
2026-05-06 17:24 45.05662 -29.77428 36173 ft 419 kts 250°
2026-05-06 17:25 45.03731 -29.85154 36172 ft 420 kts 250°
2026-05-06 17:25 45.01786 -29.92907 36171 ft 420 kts 250°
2026-05-06 17:26 44.99913 -30.00727 36166 ft 421 kts 255°
2026-05-06 17:26 44.99271 -30.08966 36158 ft 424 kts 264°
2026-05-06 17:27 44.98924 -30.17229 36155 ft 425 kts 264°
2026-05-06 17:27 44.98506 -30.25580 36164 ft 426 kts 264°
2026-05-06 17:28 44.98056 -30.33865 36166 ft 426 kts 263°
2026-05-06 17:28 44.97585 -30.42169 36165 ft 426 kts 263°
2026-05-06 17:29 44.97100 -30.50494 36164 ft 426 kts 263°
2026-05-06 17:29 44.96607 -30.58790 36163 ft 427 kts 263°
2026-05-06 17:30 44.96103 -30.67124 36167 ft 427 kts 263°
2026-05-06 17:30 44.95593 -30.75469 36170 ft 427 kts 263°
2026-05-06 17:31 44.95077 -30.83781 36169 ft 427 kts 263°
2026-05-06 17:31 44.94554 -30.92106 36168 ft 427 kts 263°
2026-05-06 17:32 44.94025 -31.00428 36167 ft 427 kts 263°
2026-05-06 17:32 44.93488 -31.08775 36166 ft 427 kts 263°
2026-05-06 17:33 44.92950 -31.17055 36165 ft 428 kts 263°
2026-05-06 17:33 44.92399 -31.25427 36163 ft 428 kts 263°
2026-05-06 17:34 44.91847 -31.33726 36159 ft 429 kts 263°
2026-05-06 17:34 44.91285 -31.42081 36155 ft 429 kts 263°
2026-05-06 17:35 44.90716 -31.50441 36154 ft 429 kts 263°
2026-05-06 17:35 44.90143 -31.58785 36153 ft 429 kts 263°
2026-05-06 17:36 44.89270 -31.71318 36157 ft 429 kts 263°
2026-05-06 17:36 44.88680 -31.79675 36155 ft 429 kts 263°
2026-05-06 17:37 44.88084 -31.88019 36154 ft 429 kts 263°
2026-05-06 17:37 44.87485 -31.96322 36153 ft 429 kts 263°
2026-05-06 17:38 44.86876 -32.04691 36152 ft 429 kts 263°
2026-05-06 17:38 44.86264 -32.13007 36139 ft 431 kts 263°
2026-05-06 17:39 44.85637 -32.21430 36138 ft 433 kts 263°
2026-05-06 17:39 44.85005 -32.29855 36149 ft 433 kts 263°
2026-05-06 17:40 44.84369 -32.38246 36149 ft 433 kts 263°
2026-05-06 17:40 44.83726 -32.46647 36148 ft 433 kts 263°
2026-05-06 17:41 44.83076 -32.55054 36147 ft 434 kts 263°
2026-05-06 17:41 44.82414 -32.63531 36146 ft 434 kts 263°
2026-05-06 17:42 44.81752 -32.71928 36153 ft 435 kts 263°
2026-05-06 17:42 44.81079 -32.80380 36152 ft 435 kts 263°
2026-05-06 17:43 44.80400 -32.88832 36152 ft 436 kts 263°
2026-05-06 17:43 44.79719 -32.97229 36150 ft 436 kts 263°
2026-05-06 17:44 44.79025 -33.05709 36150 ft 437 kts 263°
2026-05-06 17:44 44.78325 -33.14183 36148 ft 437 kts 263°
2026-05-06 17:45 44.77621 -33.22623 36148 ft 438 kts 263°
2026-05-06 17:45 44.76904 -33.31150 36147 ft 438 kts 263°
2026-05-06 17:46 44.76186 -33.39603 36146 ft 439 kts 263°
2026-05-06 17:46 44.75458 -33.48100 36146 ft 440 kts 264°
2026-05-06 17:47 44.74720 -33.56642 36145 ft 440 kts 264°
2026-05-06 17:47 44.73980 -33.65137 36145 ft 441 kts 263°
2026-05-06 17:48 44.73226 -33.73696 36152 ft 442 kts 263°
2026-05-06 17:48 44.72468 -33.82243 36152 ft 442 kts 263°
2026-05-06 17:49 44.71708 -33.90738 36152 ft 442 kts 263°
2026-05-06 17:49 44.70936 -33.99298 36152 ft 442 kts 263°
2026-05-06 17:50 44.70161 -34.07806 36152 ft 442 kts 263°
2026-05-06 17:50 44.69373 -34.16388 36146 ft 443 kts 264°
2026-05-06 17:51 44.68579 -34.24960 36145 ft 444 kts 264°
2026-05-06 17:51 44.67783 -34.33499 36152 ft 444 kts 264°
2026-05-06 17:52 44.66976 -34.42068 36152 ft 444 kts 264°
2026-05-06 17:52 44.66165 -34.50617 36152 ft 444 kts 264°
2026-05-06 17:53 44.65344 -34.59204 36151 ft 444 kts 264°
2026-05-06 17:53 44.64516 -34.67787 36156 ft 445 kts 264°
2026-05-06 17:54 44.63685 -34.76334 36157 ft 445 kts 264°
2026-05-06 17:54 44.62841 -34.84938 36157 ft 445 kts 264°
2026-05-06 17:55 44.61998 -34.93481 36156 ft 445 kts 264°
2026-05-06 17:55 44.61140 -35.02095 36156 ft 446 kts 264°
2026-05-06 17:56 44.60278 -35.10691 36155 ft 446 kts 264°
2026-05-06 17:56 44.59414 -35.19236 36154 ft 446 kts 264°
2026-05-06 17:57 44.58534 -35.27870 36154 ft 446 kts 264°
2026-05-06 17:57 44.57655 -35.36429 36153 ft 447 kts 264°
2026-05-06 17:58 44.56764 -35.45054 36153 ft 447 kts 265°
2026-05-06 17:58 44.55872 -35.53609 36152 ft 447 kts 265°
2026-05-06 17:59 44.54967 -35.62221 36152 ft 447 kts 265°
2026-05-06 17:59 44.54063 -35.70773 36157 ft 448 kts 264°
2026-05-06 18:00 44.53147 -35.79361 36158 ft 447 kts 264°
2026-05-06 18:00 44.52224 -35.87967 36158 ft 448 kts 264°
2026-05-06 18:01 44.51297 -35.96540 36157 ft 448 kts 264°
2026-05-06 18:01 44.50355 -36.05175 36158 ft 448 kts 264°
2026-05-06 18:02 44.49417 -36.13721 36158 ft 447 kts 265°
2026-05-06 18:02 44.48468 -36.22321 36166 ft 448 kts 265°
2026-05-06 18:03 44.47509 -36.30935 36165 ft 448 kts 265°
2026-05-06 18:03 44.46551 -36.39487 36163 ft 447 kts 265°
2026-05-06 18:04 44.45582 -36.48071 36163 ft 447 kts 265°
2026-05-06 18:04 44.44610 -36.56628 36165 ft 447 kts 265°
2026-05-06 18:05 44.43632 -36.65181 36166 ft 448 kts 265°
2026-05-06 18:05 44.42641 -36.73778 36175 ft 448 kts 265°
2026-05-06 18:06 44.41646 -36.82357 36175 ft 446 kts 265°
2026-05-06 18:06 44.40654 -36.90851 36177 ft 446 kts 265°
2026-05-06 18:07 44.39650 -36.99383 36177 ft 446 kts 265°
2026-05-06 18:07 44.38643 -37.07896 36178 ft 446 kts 265°
2026-05-06 18:08 44.37626 -37.16432 36178 ft 446 kts 265°
2026-05-06 18:08 44.36602 -37.24969 36183 ft 445 kts 266°
2026-05-06 18:09 44.35575 -37.33478 36196 ft 445 kts 266°
2026-05-06 18:09 44.34540 -37.41998 36249 ft 446 kts 267°
2026-05-06 18:10 44.33518 -37.50351 36246 ft 445 kts 268°
2026-05-06 18:10 44.32471 -37.58868 36189 ft 445 kts 268°
2026-05-06 18:11 44.31422 -37.67347 36191 ft 446 kts 267°
2026-05-06 18:11 44.30359 -37.75875 36191 ft 447 kts 267°
2026-05-06 18:12 44.29287 -37.84420 36191 ft 447 kts 267°
2026-05-06 18:12 44.28214 -37.92932 36190 ft 448 kts 267°
2026-05-06 18:13 44.27128 -38.01477 36190 ft 448 kts 267°
2026-05-06 18:13 44.26043 -38.09968 36191 ft 448 kts 267°
2026-05-06 18:14 44.24946 -38.18498 36191 ft 448 kts 267°
2026-05-06 18:14 44.23848 -38.26982 36189 ft 448 kts 267°
2026-05-06 18:15 44.22737 -38.35516 36190 ft 448 kts 267°
2026-05-06 18:15 44.21619 -38.44056 36191 ft 447 kts 267°
2026-05-06 18:16 44.20503 -38.52528 36192 ft 447 kts 267°
2026-05-06 18:16 44.19379 -38.61010 36193 ft 447 kts 267°
2026-05-06 18:17 44.18244 -38.69526 36199 ft 448 kts 266°
2026-05-06 18:17 44.17105 -38.78016 36201 ft 448 kts 266°
2026-05-06 18:18 44.15965 -38.86465 36202 ft 447 kts 266°
2026-05-06 18:18 44.14814 -38.94948 36202 ft 447 kts 266°
2026-05-06 18:19 44.13653 -39.03450 36202 ft 447 kts 267°
2026-05-06 18:19 44.12490 -39.11924 36202 ft 446 kts 267°
2026-05-06 18:20 44.11326 -39.20353 36202 ft 446 kts 267°
2026-05-06 18:20 44.10150 -39.28827 36202 ft 446 kts 267°
2026-05-06 18:21 44.08975 -39.37237 36201 ft 447 kts 267°
2026-05-06 18:21 44.07786 -39.45703 36201 ft 447 kts 267°
2026-05-06 18:22 44.06591 -39.54166 36201 ft 446 kts 267°
2026-05-06 18:22 44.05392 -39.62600 36200 ft 446 kts 267°
2026-05-06 18:23 44.04187 -39.71045 36206 ft 447 kts 266°
2026-05-06 18:23 44.02981 -39.79442 36206 ft 447 kts 266°
2026-05-06 18:24 44.01753 -39.87946 36206 ft 448 kts 266°
2026-05-06 18:24 44.00528 -39.96380 36205 ft 448 kts 266°
2026-05-06 18:25 43.99262 -40.04879 36276 ft 454 kts 266°
2026-05-06 18:25 43.98618 -40.09136 36557 ft 454 kts 266°
2026-05-06 18:25 43.97972 -40.13385 36934 ft 451 kts 266°
2026-05-06 18:26 43.97319 -40.17665 37259 ft 449 kts 266°
2026-05-06 18:26 43.96679 -40.21859 37487 ft 449 kts 266°
2026-05-06 18:26 43.96028 -40.26106 37715 ft 450 kts 265°
2026-05-06 18:26 43.95378 -40.30326 37997 ft 448 kts 265°
2026-05-06 18:27 43.94729 -40.34558 38180 ft 448 kts 265°
2026-05-06 18:27 43.94083 -40.38753 38206 ft 446 kts 265°
2026-05-06 18:27 43.92793 -40.47109 38210 ft 442 kts 265°
2026-05-06 18:28 43.91505 -40.55370 38210 ft 439 kts 265°
2026-05-06 18:28 43.90209 -40.63660 38204 ft 438 kts 265°
2026-05-06 18:29 43.88913 -40.71909 38200 ft 437 kts 264°
2026-05-06 18:29 43.87608 -40.80109 38200 ft 435 kts 264°
2026-05-06 18:30 43.86320 -40.88243 38200 ft 434 kts 264°
2026-05-06 18:30 43.85023 -40.96359 38203 ft 433 kts 264°
2026-05-06 18:31 43.83723 -41.04495 38201 ft 432 kts 264°
2026-05-06 18:31 43.82425 -41.12556 38202 ft 432 kts 264°
2026-05-06 18:32 43.81106 -41.20664 38199 ft 432 kts 264°
2026-05-06 18:32 43.79787 -41.28770 38203 ft 431 kts 264°
2026-05-06 18:33 43.78471 -41.36824 38202 ft 431 kts 264°
2026-05-06 18:33 43.77151 -41.44839 38204 ft 430 kts 264°
2026-05-06 18:34 43.75820 -41.52896 38199 ft 430 kts 264°
2026-05-06 18:34 43.74488 -41.60932 38199 ft 430 kts 264°
2026-05-06 18:35 43.73158 -41.68938 38207 ft 431 kts 263°
2026-05-06 18:35 43.71805 -41.76995 38209 ft 431 kts 263°
2026-05-06 18:36 43.70457 -41.85054 38206 ft 431 kts 263°
2026-05-06 18:36 43.69097 -41.93102 38207 ft 431 kts 263°
2026-05-06 18:37 43.67738 -42.01112 38207 ft 431 kts 263°
2026-05-06 18:37 43.66367 -42.09144 38204 ft 431 kts 263°
2026-05-06 18:38 43.65003 -42.17121 38204 ft 430 kts 263°
2026-05-06 18:38 43.63618 -42.25125 38199 ft 430 kts 263°
2026-05-06 18:39 43.62233 -42.33147 38200 ft 429 kts 263°
2026-05-06 18:40 43.60150 -42.45119 38200 ft 429 kts 263°
2026-05-06 18:40 43.58763 -42.53065 38199 ft 428 kts 263°
2026-05-06 18:41 43.57365 -42.61026 38196 ft 427 kts 263°
2026-05-06 18:41 43.55969 -42.68984 38207 ft 427 kts 262°
2026-05-06 18:42 43.54559 -42.76951 38210 ft 426 kts 262°
2026-05-06 18:42 43.53144 -42.84872 38209 ft 425 kts 262°
2026-05-06 18:43 43.51740 -42.92738 38208 ft 424 kts 262°
2026-05-06 18:43 43.50330 -43.00579 38210 ft 423 kts 262°
2026-05-06 18:44 43.48917 -43.08452 38209 ft 422 kts 262°
2026-05-06 18:44 43.47509 -43.16251 38209 ft 422 kts 262°
2026-05-06 18:45 43.46079 -43.24099 38207 ft 422 kts 262°
2026-05-06 18:45 43.44654 -43.31899 38211 ft 421 kts 262°
2026-05-06 18:46 43.43239 -43.39653 38210 ft 421 kts 261°
2026-05-06 18:46 43.41802 -43.47454 38209 ft 421 kts 262°
2026-05-06 18:47 43.40373 -43.55219 38205 ft 422 kts 262°
2026-05-06 18:47 43.38921 -43.63026 38210 ft 422 kts 261°
2026-05-06 18:48 43.37475 -43.70795 38218 ft 423 kts 261°
2026-05-06 18:48 43.36009 -43.78646 38221 ft 422 kts 261°
2026-05-06 18:49 43.34553 -43.86401 38221 ft 422 kts 261°
2026-05-06 18:49 43.33076 -43.94215 38216 ft 422 kts 261°
2026-05-06 18:50 43.31602 -44.01959 38216 ft 422 kts 261°
2026-05-06 18:50 43.30114 -44.09753 38210 ft 422 kts 261°
2026-05-06 18:51 43.28648 -44.17461 38209 ft 420 kts 260°
2026-05-06 18:51 43.27185 -44.25076 38211 ft 419 kts 260°
2026-05-06 18:52 43.25706 -44.32804 38210 ft 418 kts 260°
2026-05-06 18:52 43.24221 -44.40484 38208 ft 418 kts 260°
2026-05-06 18:53 43.22720 -44.48215 38207 ft 417 kts 260°
2026-05-06 18:53 43.21230 -44.55860 38206 ft 415 kts 261°
2026-05-06 18:54 43.19736 -44.63514 38206 ft 414 kts 260°
2026-05-06 18:54 43.18242 -44.71135 38219 ft 414 kts 260°
2026-05-06 18:55 43.16749 -44.78706 38220 ft 412 kts 260°
2026-05-06 18:55 43.15252 -44.86291 38219 ft 411 kts 260°
2026-05-06 18:56 43.13765 -44.93799 38218 ft 410 kts 260°
2026-05-06 18:56 43.12261 -45.01342 38218 ft 409 kts 260°
2026-05-06 18:57 43.10762 -45.08814 38215 ft 408 kts 260°
2026-05-06 18:57 43.09249 -45.16334 38216 ft 408 kts 260°
2026-05-06 18:58 43.07752 -45.23782 38216 ft 408 kts 259°
2026-05-06 18:58 43.06237 -45.31250 38213 ft 407 kts 259°
2026-05-06 18:59 43.04731 -45.38672 38213 ft 406 kts 260°
2026-05-06 18:59 43.03213 -45.46155 38212 ft 406 kts 260°
2026-05-06 19:00 43.01701 -45.53533 38212 ft 405 kts 259°
2026-05-06 19:00 43.00174 -45.60960 38212 ft 404 kts 259°
2026-05-06 19:01 42.98668 -45.68282 38215 ft 404 kts 259°
2026-05-06 19:01 42.97141 -45.75684 38214 ft 403 kts 259°
2026-05-06 19:02 42.95626 -45.83024 38213 ft 403 kts 259°
2026-05-06 19:02 42.94105 -45.90339 38211 ft 402 kts 259°
2026-05-06 19:03 42.92565 -45.97682 38208 ft 401 kts 259°
2026-05-06 19:03 42.91032 -46.04979 38208 ft 400 kts 259°
2026-05-06 19:04 42.89504 -46.12248 38206 ft 399 kts 259°
2026-05-06 19:04 42.87961 -46.19512 38200 ft 397 kts 259°
2026-05-06 19:05 42.86439 -46.26716 38197 ft 395 kts 259°
2026-05-06 19:05 42.84919 -46.33857 38201 ft 394 kts 259°
2026-05-06 19:06 42.83386 -46.41012 38196 ft 394 kts 259°
2026-05-06 19:06 42.81859 -46.48159 38198 ft 393 kts 259°
2026-05-06 19:07 42.80338 -46.55246 38198 ft 392 kts 259°
2026-05-06 19:07 42.78809 -46.62333 38196 ft 392 kts 259°
2026-05-06 19:08 42.77270 -46.69449 38213 ft 393 kts 258°
2026-05-06 19:08 42.75737 -46.76539 38213 ft 392 kts 258°
2026-05-06 19:09 42.74193 -46.83601 38213 ft 391 kts 258°
2026-05-06 19:09 42.72639 -46.90700 38210 ft 390 kts 258°
2026-05-06 19:10 42.71102 -46.97744 38201 ft 390 kts 258°
2026-05-06 19:10 42.69550 -47.04784 38196 ft 390 kts 258°
2026-05-06 19:11 42.67996 -47.11832 38195 ft 389 kts 258°
2026-05-06 19:11 42.66450 -47.18830 38193 ft 389 kts 258°
2026-05-06 19:12 42.64890 -47.25880 38192 ft 388 kts 258°
2026-05-06 19:12 42.63339 -47.32840 38189 ft 388 kts 258°
2026-05-06 19:13 42.61768 -47.39867 38187 ft 387 kts 258°
2026-05-06 19:13 42.60212 -47.46797 38186 ft 386 kts 258°
2026-05-06 19:14 42.58649 -47.53762 38183 ft 385 kts 258°
2026-05-06 19:14 42.57087 -47.60675 38180 ft 384 kts 258°
2026-05-06 19:15 42.55524 -47.67556 38198 ft 383 kts 257°
2026-05-06 19:15 42.53963 -47.74430 38202 ft 382 kts 257°
2026-05-06 19:16 42.52388 -47.81345 38201 ft 381 kts 257°
2026-05-06 19:16 42.50840 -47.88139 38198 ft 380 kts 257°
2026-05-06 19:17 42.49275 -47.94944 38199 ft 379 kts 257°
2026-05-06 19:17 42.47706 -48.01766 38193 ft 378 kts 257°
2026-05-06 19:18 42.46141 -48.08529 38193 ft 378 kts 257°
2026-05-06 19:18 42.44579 -48.15300 38195 ft 377 kts 257°
2026-05-06 19:19 42.43010 -48.22075 38194 ft 376 kts 257°
2026-05-06 19:19 42.41447 -48.28796 38193 ft 375 kts 257°
2026-05-06 19:20 42.39881 -48.35504 38190 ft 375 kts 257°
2026-05-06 19:20 42.38312 -48.42193 38189 ft 376 kts 257°
2026-05-06 19:21 42.36728 -48.48920 38187 ft 376 kts 257°
2026-05-06 19:21 42.35148 -48.55652 38185 ft 377 kts 257°
2026-05-06 19:22 42.33604 -48.62206 38184 ft 377 kts 257°
2026-05-06 19:22 42.32004 -48.68947 38201 ft 378 kts 256°
2026-05-06 19:23 42.30407 -48.75676 38205 ft 378 kts 256°
2026-05-06 19:23 42.28801 -48.82415 38203 ft 378 kts 256°
2026-05-06 19:24 42.27176 -48.89181 38200 ft 378 kts 256°
2026-05-06 19:24 42.25575 -48.95893 38198 ft 378 kts 256°
2026-05-06 19:25 42.23952 -49.02654 38196 ft 379 kts 256°
2026-05-06 19:25 42.22310 -49.09431 38193 ft 379 kts 255°
2026-05-06 19:26 42.20695 -49.16143 38192 ft 378 kts 255°
2026-05-06 19:26 42.19056 -49.22898 38190 ft 378 kts 255°
2026-05-06 19:27 42.17427 -49.29589 38191 ft 378 kts 255°
2026-05-06 19:27 42.15785 -49.36320 38187 ft 378 kts 255°
2026-05-06 19:28 42.14149 -49.43006 38185 ft 378 kts 255°
2026-05-06 19:28 42.12511 -49.49674 38184 ft 377 kts 255°
2026-05-06 19:29 42.10855 -49.56403 38182 ft 376 kts 255°
2026-05-06 19:29 42.09215 -49.63058 38183 ft 375 kts 254°
2026-05-06 19:30 42.07558 -49.69745 38204 ft 375 kts 254°
2026-05-06 19:30 42.05911 -49.76357 38211 ft 374 kts 253°
2026-05-06 19:31 42.04261 -49.82968 38210 ft 373 kts 253°
2026-05-06 19:31 42.01777 -49.92911 38205 ft 373 kts 253°
2026-05-06 19:32 42.00206 -49.99508 38200 ft 371 kts 259°
2026-05-06 19:32 42.00005 -50.06499 38374 ft 377 kts 272°
2026-05-06 19:33 42.00238 -50.09975 38631 ft 375 kts 272°
2026-05-06 19:33 42.00454 -50.13453 38872 ft 374 kts 272°
2026-05-06 19:33 42.00648 -50.16927 39114 ft 373 kts 271°
2026-05-06 19:33 42.00822 -50.20385 39353 ft 373 kts 271°
2026-05-06 19:34 42.00982 -50.23847 39586 ft 372 kts 271°
2026-05-06 19:34 42.01137 -50.27313 39823 ft 371 kts 270°
2026-05-06 19:34 42.01284 -50.30742 40063 ft 370 kts 270°
2026-05-06 19:34 42.01427 -50.34223 40245 ft 370 kts 270°
2026-05-06 19:35 42.01711 -50.41065 40223 ft 366 kts 270°
2026-05-06 19:35 42.01982 -50.47871 40197 ft 368 kts 270°
2026-05-06 19:36 42.02249 -50.54736 40192 ft 370 kts 270°
2026-05-06 19:36 42.02512 -50.61610 40190 ft 369 kts 270°
2026-05-06 19:37 42.02777 -50.68525 40208 ft 370 kts 270°
2026-05-06 19:37 42.03034 -50.75403 40211 ft 370 kts 270°
2026-05-06 19:38 42.03285 -50.82279 40212 ft 371 kts 269°
2026-05-06 19:38 42.03533 -50.89182 40206 ft 371 kts 269°
2026-05-06 19:39 42.03778 -50.96085 40200 ft 372 kts 269°
2026-05-06 19:39 42.04018 -51.03039 40197 ft 372 kts 269°
2026-05-06 19:40 42.04248 -51.09947 40197 ft 372 kts 269°
2026-05-06 19:40 42.04483 -51.16859 40194 ft 372 kts 269°
2026-05-06 19:41 42.04715 -51.23785 40195 ft 372 kts 269°
2026-05-06 19:41 42.04940 -51.30753 40191 ft 372 kts 269°
2026-05-06 19:42 42.05168 -51.37728 40192 ft 373 kts 269°
2026-05-06 19:42 42.05380 -51.44649 40188 ft 372 kts 269°
2026-05-06 19:43 42.05594 -51.51584 40186 ft 372 kts 269°
2026-05-06 19:43 42.05806 -51.58561 40184 ft 372 kts 268°
2026-05-06 19:44 42.06011 -51.65492 40187 ft 372 kts 268°
2026-05-06 19:44 42.06204 -51.72398 40203 ft 371 kts 268°
2026-05-06 19:45 42.06393 -51.79332 40205 ft 370 kts 268°
2026-05-06 19:45 42.06591 -51.86242 40203 ft 371 kts 268°
2026-05-06 19:46 42.06774 -51.93200 40202 ft 371 kts 268°
2026-05-06 19:46 42.06959 -52.00118 40198 ft 370 kts 268°
2026-05-06 19:47 42.07138 -52.06993 40195 ft 370 kts 268°
2026-05-06 19:47 42.07315 -52.13923 40197 ft 370 kts 268°
2026-05-06 19:48 42.07481 -52.20800 40195 ft 370 kts 268°
2026-05-06 19:48 42.07647 -52.27717 40195 ft 370 kts 268°
2026-05-06 19:49 42.07807 -52.34634 40191 ft 371 kts 268°
2026-05-06 19:49 42.07966 -52.41595 40190 ft 371 kts 268°
2026-05-06 19:50 42.08117 -52.48507 40189 ft 372 kts 268°
2026-05-06 19:50 42.08267 -52.55448 40188 ft 373 kts 268°
2026-05-06 19:51 42.08413 -52.62429 40187 ft 373 kts 268°
2026-05-06 19:51 42.08554 -52.69356 40205 ft 374 kts 267°
2026-05-06 19:52 42.08693 -52.76378 40207 ft 375 kts 267°
2026-05-06 19:52 42.08826 -52.83353 40209 ft 376 kts 267°
2026-05-06 19:53 42.08956 -52.90385 40211 ft 377 kts 267°
2026-05-06 19:53 42.09082 -52.97433 40210 ft 378 kts 267°
2026-05-06 19:54 42.09205 -53.04515 40209 ft 379 kts 266°
2026-05-06 19:54 42.09323 -53.11568 40211 ft 379 kts 266°
2026-05-06 19:55 42.09436 -53.18660 40215 ft 379 kts 266°
2026-05-06 19:55 42.09546 -53.25704 40214 ft 379 kts 266°
2026-05-06 19:56 42.09650 -53.32782 40212 ft 379 kts 266°
2026-05-06 19:56 42.09751 -53.39870 40211 ft 378 kts 266°
2026-05-06 19:57 42.09846 -53.46885 40209 ft 378 kts 266°
2026-05-06 19:57 42.09938 -53.53949 40208 ft 378 kts 266°
2026-05-06 19:58 42.10027 -53.61010 40206 ft 378 kts 265°
2026-05-06 19:58 42.10109 -53.68013 40222 ft 377 kts 265°
2026-05-06 19:59 42.10187 -53.75051 40223 ft 376 kts 265°
2026-05-06 19:59 42.10261 -53.82046 40221 ft 376 kts 264°
2026-05-06 20:00 42.10331 -53.89086 40219 ft 375 kts 264°
2026-05-06 20:00 42.10396 -53.96053 40217 ft 374 kts 264°
2026-05-06 20:01 42.10457 -54.03049 40215 ft 373 kts 264°
2026-05-06 20:01 42.10513 -54.10004 40213 ft 373 kts 264°
2026-05-06 20:02 42.10566 -54.16981 40210 ft 373 kts 264°
2026-05-06 20:02 42.10613 -54.23938 40209 ft 373 kts 264°
2026-05-06 20:03 42.10657 -54.30917 40207 ft 374 kts 264°
2026-05-06 20:03 42.10696 -54.37869 40205 ft 374 kts 264°
2026-05-06 20:04 42.10732 -54.44873 40203 ft 375 kts 264°
2026-05-06 20:04 42.10764 -54.51903 40201 ft 377 kts 264°
2026-05-06 20:05 42.10791 -54.58924 40199 ft 378 kts 264°
2026-05-06 20:05 42.10813 -54.65992 40203 ft 379 kts 264°
2026-05-06 20:06 42.10833 -54.73125 40216 ft 379 kts 264°
2026-05-06 20:06 42.10847 -54.80192 40215 ft 381 kts 264°
2026-05-06 20:07 42.10857 -54.87370 40213 ft 383 kts 264°
2026-05-06 20:07 42.10863 -54.94568 40212 ft 384 kts 264°
2026-05-06 20:08 42.10864 -55.01761 40210 ft 385 kts 264°
2026-05-06 20:08 42.10860 -55.08981 40208 ft 385 kts 264°
2026-05-06 20:09 42.10853 -55.16177 40207 ft 385 kts 263°
2026-05-06 20:09 42.10841 -55.23388 40206 ft 386 kts 263°
2026-05-06 20:10 42.10823 -55.30664 40205 ft 386 kts 263°
2026-05-06 20:10 42.10802 -55.37846 40203 ft 386 kts 263°
2026-05-06 20:11 42.10778 -55.45076 40203 ft 386 kts 263°
2026-05-06 20:11 42.10745 -55.52296 40200 ft 385 kts 262°
2026-05-06 20:12 42.10710 -55.59468 40200 ft 385 kts 262°
2026-05-06 20:12 42.10672 -55.66707 40209 ft 384 kts 262°
2026-05-06 20:13 42.10630 -55.73855 40218 ft 383 kts 261°
2026-05-06 20:13 42.10581 -55.81046 40218 ft 382 kts 262°
2026-05-06 20:14 42.10526 -55.88204 40221 ft 382 kts 261°
2026-05-06 20:14 42.10473 -55.95365 40221 ft 381 kts 261°
2026-05-06 20:15 42.10408 -56.02489 40219 ft 381 kts 261°
2026-05-06 20:15 42.10336 -56.09614 40219 ft 381 kts 261°
2026-05-06 20:16 42.10272 -56.16585 40216 ft 380 kts 261°
2026-05-06 20:16 42.10195 -56.23699 40214 ft 381 kts 261°
2026-05-06 20:17 42.10113 -56.30827 40213 ft 382 kts 261°
2026-05-06 20:17 42.10033 -56.38000 40215 ft 384 kts 261°
2026-05-06 20:18 42.09946 -56.45167 40220 ft 385 kts 261°
2026-05-06 20:18 42.09859 -56.52393 40218 ft 387 kts 262°
2026-05-06 20:19 42.09757 -56.59633 40218 ft 388 kts 262°
2026-05-06 20:19 42.09632 -56.68132 40229 ft 391 kts 261°
2026-05-06 20:20 42.09543 -56.74244 40231 ft 393 kts 262°
2026-05-06 20:20 42.09428 -56.81592 40230 ft 395 kts 262°
2026-05-06 20:21 42.09311 -56.88995 40228 ft 397 kts 262°
2026-05-06 20:21 42.09187 -56.96434 40227 ft 401 kts 262°
2026-05-06 20:22 42.09056 -57.03999 40226 ft 404 kts 262°
2026-05-06 20:22 42.08919 -57.11580 40226 ft 407 kts 262°
2026-05-06 20:23 42.08776 -57.19248 40225 ft 409 kts 263°
2026-05-06 20:23 42.08627 -57.26909 40224 ft 411 kts 263°
2026-05-06 20:24 42.08474 -57.34580 40223 ft 414 kts 263°
2026-05-06 20:24 42.08313 -57.42375 40222 ft 416 kts 263°
2026-05-06 20:25 42.08145 -57.50181 40222 ft 417 kts 263°
2026-05-06 20:25 42.07972 -57.58022 40222 ft 419 kts 263°
2026-05-06 20:26 42.07795 -57.65808 40224 ft 420 kts 262°
2026-05-06 20:26 42.07611 -57.73673 40233 ft 421 kts 262°
2026-05-06 20:27 42.07422 -57.81527 40232 ft 421 kts 262°
2026-05-06 20:27 42.07227 -57.89400 40232 ft 422 kts 262°
2026-05-06 20:28 42.07026 -57.97280 40231 ft 422 kts 262°
2026-05-06 20:28 42.06819 -58.05191 40231 ft 423 kts 262°
2026-05-06 20:29 42.06607 -58.13071 40230 ft 424 kts 262°
2026-05-06 20:29 42.06390 -58.20973 40230 ft 423 kts 262°
2026-05-06 20:30 42.06053 -58.32818 40229 ft 424 kts 262°
2026-05-06 20:31 42.05821 -58.40750 40228 ft 424 kts 262°
2026-05-06 20:31 42.05584 -58.48646 40228 ft 425 kts 262°
2026-05-06 20:32 42.05302 -58.57849 40227 ft 425 kts 262°
2026-05-06 20:32 42.05094 -58.64471 40227 ft 426 kts 263°
2026-05-06 20:33 42.04840 -58.72425 40236 ft 427 kts 262°
2026-05-06 20:33 42.04578 -58.80401 40236 ft 428 kts 262°
2026-05-06 20:34 42.04311 -58.88410 40235 ft 430 kts 263°
2026-05-06 20:34 42.04038 -58.96396 40230 ft 431 kts 263°
2026-05-06 20:35 42.03757 -59.04453 40224 ft 432 kts 263°
2026-05-06 20:35 42.03471 -59.12528 40222 ft 434 kts 263°
2026-05-06 20:36 42.03177 -59.20633 40221 ft 435 kts 263°
2026-05-06 20:36 42.02877 -59.28755 40220 ft 437 kts 264°
2026-05-06 20:37 42.02571 -59.36886 40219 ft 438 kts 264°
2026-05-06 20:37 42.02257 -59.45078 40219 ft 440 kts 264°
2026-05-06 20:38 42.01938 -59.53238 40218 ft 441 kts 264°
2026-05-06 20:38 42.01609 -59.61505 40217 ft 442 kts 264°
2026-05-06 20:39 42.01277 -59.69716 40223 ft 442 kts 264°
2026-05-06 20:39 42.00936 -59.77993 40223 ft 442 kts 264°
2026-05-06 20:40 42.00590 -59.86249 40223 ft 443 kts 264°
2026-05-06 20:40 42.00240 -59.94459 40222 ft 444 kts 264°
2026-05-06 20:41 41.99697 -60.02732 40223 ft 443 kts 261°
2026-05-06 20:41 41.98943 -60.10913 40221 ft 443 kts 261°
2026-05-06 20:42 41.98171 -60.19086 40219 ft 443 kts 260°
2026-05-06 20:42 41.97388 -60.27266 40209 ft 443 kts 260°
2026-05-06 20:43 41.96595 -60.35458 40196 ft 443 kts 260°
2026-05-06 20:43 41.95798 -60.43612 40192 ft 443 kts 260°
2026-05-06 20:44 41.94989 -60.51828 40192 ft 443 kts 260°
2026-05-06 20:44 41.94180 -60.59960 40190 ft 443 kts 260°
2026-05-06 20:45 41.93363 -60.68121 40195 ft 443 kts 259°
2026-05-06 20:45 41.92536 -60.76318 40194 ft 443 kts 259°
2026-05-06 20:46 41.91707 -60.84483 40193 ft 444 kts 259°
2026-05-06 20:46 41.90872 -60.92643 40192 ft 444 kts 260°
2026-05-06 20:47 41.90026 -61.00850 40191 ft 445 kts 260°
2026-05-06 20:47 41.89176 -61.09038 40195 ft 445 kts 260°
2026-05-06 20:48 41.88317 -61.17260 40192 ft 446 kts 260°
2026-05-06 20:48 41.87450 -61.25488 40189 ft 446 kts 261°
2026-05-06 20:49 41.86579 -61.33704 40187 ft 447 kts 261°
2026-05-06 20:49 41.85698 -61.41966 40185 ft 448 kts 261°
2026-05-06 20:50 41.84816 -61.50172 40183 ft 448 kts 261°
2026-05-06 20:50 41.83923 -61.58421 40180 ft 449 kts 261°
2026-05-06 20:51 41.83018 -61.66719 40180 ft 449 kts 261°
2026-05-06 20:51 41.82113 -61.74962 40180 ft 449 kts 261°
2026-05-06 20:52 41.81204 -61.83193 40177 ft 450 kts 261°
2026-05-06 20:52 41.80282 -61.91478 40173 ft 450 kts 261°
2026-05-06 20:53 41.79356 -61.99742 40171 ft 450 kts 261°
2026-05-06 20:53 41.78422 -62.08032 40167 ft 450 kts 261°
2026-05-06 20:54 41.77486 -62.16280 40164 ft 450 kts 261°
2026-05-06 20:54 41.76543 -62.24534 40160 ft 450 kts 261°
2026-05-06 20:55 41.75590 -62.32820 40157 ft 450 kts 261°
2026-05-06 20:55 41.74631 -62.41109 40154 ft 450 kts 261°
2026-05-06 20:56 41.73671 -62.49348 40151 ft 450 kts 261°
2026-05-06 20:56 41.72541 -62.58975 40147 ft 450 kts 262°
2026-05-06 20:57 41.71726 -62.65884 40146 ft 450 kts 261°
2026-05-06 20:57 41.70748 -62.74110 40148 ft 450 kts 261°
2026-05-06 20:58 41.69766 -62.82333 40146 ft 450 kts 261°
2026-05-06 20:58 41.68774 -62.90578 40144 ft 450 kts 261°
2026-05-06 20:59 41.67775 -62.98842 40142 ft 449 kts 261°
2026-05-06 20:59 41.66778 -63.07026 40140 ft 449 kts 262°
2026-05-06 21:00 41.65767 -63.15285 40138 ft 448 kts 262°
2026-05-06 21:00 41.64757 -63.23472 40137 ft 448 kts 262°
2026-05-06 21:01 41.63739 -63.31685 40135 ft 448 kts 262°
2026-05-06 21:01 41.62716 -63.39883 40134 ft 447 kts 262°
2026-05-06 21:02 41.61686 -63.48093 40131 ft 446 kts 262°
2026-05-06 21:02 41.60660 -63.56218 40129 ft 445 kts 262°
2026-05-06 21:03 41.59630 -63.64326 40127 ft 445 kts 262°
2026-05-06 21:03 41.58592 -63.72450 40104 ft 445 kts 262°
2026-05-06 21:04 41.57552 -63.80545 40065 ft 444 kts 262°
2026-05-06 21:04 41.56506 -63.88640 40052 ft 444 kts 262°
2026-05-06 21:05 41.55454 -63.96735 40050 ft 444 kts 262°
2026-05-06 21:05 41.54393 -64.04852 40048 ft 444 kts 262°
2026-05-06 21:06 41.53331 -64.12929 40046 ft 444 kts 262°
2026-05-06 21:06 41.52264 -64.21000 40045 ft 443 kts 262°
2026-05-06 21:07 41.51192 -64.29061 40043 ft 443 kts 263°
2026-05-06 21:07 41.50117 -64.37107 40040 ft 443 kts 263°
2026-05-06 21:08 41.49029 -64.45202 40038 ft 443 kts 263°
2026-05-06 21:08 41.47945 -64.53221 40037 ft 443 kts 263°
2026-05-06 21:09 41.46846 -64.61303 40036 ft 444 kts 263°
2026-05-06 21:09 41.45734 -64.69442 40041 ft 444 kts 262°
2026-05-06 21:10 41.44625 -64.77512 40050 ft 443 kts 262°
2026-05-06 21:10 41.43511 -64.85568 40066 ft 439 kts 263°
2026-05-06 21:11 41.42407 -64.93510 40056 ft 434 kts 263°
2026-05-06 21:11 41.41313 -65.01354 40037 ft 433 kts 263°
2026-05-06 21:12 41.40209 -65.09216 40036 ft 432 kts 263°
2026-05-06 21:12 41.39101 -65.17071 40035 ft 431 kts 264°
2026-05-06 21:13 41.37997 -65.24854 40035 ft 429 kts 264°
2026-05-06 21:13 41.36889 -65.32629 40023 ft 428 kts 264°
2026-05-06 21:14 41.35775 -65.40402 40004 ft 426 kts 264°
2026-05-06 21:14 41.34659 -65.48157 39997 ft 425 kts 264°
2026-05-06 21:15 41.33543 -65.55866 39997 ft 424 kts 264°
2026-05-06 21:15 41.32430 -65.63515 39995 ft 423 kts 264°
2026-05-06 21:16 41.31313 -65.71169 40003 ft 423 kts 263°
2026-05-06 21:16 41.30192 -65.78808 40005 ft 422 kts 263°
2026-05-06 21:17 41.29067 -65.86427 40005 ft 422 kts 263°
2026-05-06 21:17 41.27939 -65.94039 40003 ft 421 kts 263°
2026-05-06 21:18 41.26794 -66.01720 40002 ft 421 kts 263°
2026-05-06 21:18 41.25659 -66.09306 40002 ft 420 kts 263°
2026-05-06 21:19 41.24520 -66.16878 39999 ft 419 kts 263°
2026-05-06 21:19 41.23380 -66.24423 39988 ft 417 kts 264°
2026-05-06 21:20 41.22243 -66.31912 39976 ft 415 kts 264°
2026-05-06 21:20 41.21103 -66.39387 39971 ft 415 kts 264°
2026-05-06 21:21 41.19952 -66.46905 39970 ft 415 kts 264°
2026-05-06 21:21 41.18796 -66.54416 39968 ft 415 kts 264°
2026-05-06 21:22 41.17640 -66.61893 39966 ft 415 kts 264°
2026-05-06 21:22 41.16483 -66.69344 39977 ft 415 kts 263°
2026-05-06 21:23 41.15311 -66.76849 39977 ft 414 kts 263°
2026-05-06 21:23 41.14148 -66.84274 39976 ft 413 kts 263°
2026-05-06 21:24 41.12974 -66.91724 39974 ft 412 kts 263°
2026-05-06 21:24 41.11868 -66.99194 39966 ft 408 kts 268°
2026-05-06 21:25 41.12042 -67.06588 39968 ft 401 kts 279°
2026-05-06 21:25 41.12709 -67.13975 39965 ft 401 kts 279°
2026-05-06 21:26 41.13337 -67.21315 39964 ft 401 kts 279°
2026-05-06 21:26 41.14032 -67.29873 39963 ft 400 kts 278°
2026-05-06 21:27 41.14520 -67.35962 39959 ft 400 kts 278°
2026-05-06 21:27 41.15095 -67.43263 39955 ft 400 kts 278°
2026-05-06 21:28 41.15664 -67.50558 39955 ft 399 kts 278°
2026-05-06 21:28 41.16210 -67.57918 39949 ft 399 kts 278°
2026-05-06 21:29 41.16760 -67.65200 39948 ft 398 kts 277°
2026-05-06 21:29 41.17312 -67.72504 39959 ft 399 kts 277°
2026-05-06 21:30 41.17867 -67.79820 39958 ft 398 kts 277°
2026-05-06 21:30 41.18406 -67.87137 39954 ft 398 kts 277°
2026-05-06 21:31 41.18869 -67.94381 39953 ft 397 kts 276°
2026-05-06 21:31 41.19247 -68.01723 39947 ft 397 kts 276°
2026-05-06 21:32 41.19618 -68.08993 39947 ft 397 kts 276°
2026-05-06 21:32 41.20187 -68.19852 39938 ft 393 kts 275°
2026-05-06 21:33 41.20561 -68.27087 39942 ft 392 kts 275°
2026-05-06 21:33 41.20921 -68.34308 39938 ft 392 kts 275°
2026-05-06 21:34 41.21285 -68.41528 39935 ft 392 kts 275°
2026-05-06 21:34 41.21640 -68.48752 39933 ft 392 kts 275°
2026-05-06 21:35 41.21991 -68.55945 39931 ft 392 kts 275°
2026-05-06 21:35 41.22332 -68.63145 39923 ft 391 kts 275°
2026-05-06 21:36 41.22686 -68.70356 39941 ft 392 kts 275°
2026-05-06 21:36 41.23029 -68.77657 39940 ft 391 kts 275°
2026-05-06 21:37 41.23360 -68.84843 39941 ft 391 kts 275°
2026-05-06 21:37 41.23690 -68.92062 39939 ft 390 kts 275°
2026-05-06 21:38 41.24017 -68.99204 39939 ft 390 kts 274°
2026-05-06 21:38 41.24332 -69.06391 39938 ft 389 kts 274°
2026-05-06 21:39 41.24637 -69.13575 39937 ft 389 kts 274°
2026-05-06 21:39 41.25002 -69.21947 39936 ft 389 kts 274°
2026-05-06 21:40 41.25259 -69.27930 39935 ft 389 kts 274°
2026-05-06 21:40 41.25561 -69.35030 39931 ft 388 kts 274°
2026-05-06 21:41 41.25863 -69.42170 39935 ft 388 kts 274°
2026-05-06 21:41 41.26150 -69.49327 39932 ft 388 kts 274°
2026-05-06 21:42 41.26432 -69.56448 39932 ft 387 kts 274°
2026-05-06 21:42 41.26722 -69.63591 39931 ft 387 kts 274°
2026-05-06 21:43 41.26995 -69.70689 39943 ft 387 kts 273°
2026-05-06 21:43 41.27261 -69.77727 39950 ft 387 kts 273°
2026-05-06 21:44 41.27536 -69.84843 39949 ft 387 kts 273°
2026-05-06 21:44 41.27802 -69.91978 39946 ft 387 kts 272°
2026-05-06 21:45 41.28057 -69.99091 39947 ft 386 kts 272°
2026-05-06 21:45 41.27419 -70.06177 39950 ft 390 kts 259°
2026-05-06 21:46 41.26043 -70.13128 39936 ft 388 kts 258°
2026-05-06 21:46 41.24656 -70.20013 39935 ft 386 kts 258°
2026-05-06 21:47 41.23264 -70.26852 39944 ft 386 kts 258°
2026-05-06 21:47 41.21854 -70.33750 39942 ft 386 kts 258°
2026-05-06 21:48 41.20448 -70.40595 39932 ft 385 kts 258°
2026-05-06 21:48 41.19040 -70.47430 39925 ft 385 kts 258°
2026-05-06 21:49 41.17616 -70.54273 39917 ft 384 kts 258°
2026-05-06 21:49 41.16193 -70.61104 39908 ft 384 kts 258°
2026-05-06 21:50 41.14772 -70.67975 39919 ft 384 kts 257°
2026-05-06 21:50 41.13361 -70.74696 39912 ft 384 kts 258°
2026-05-06 21:51 41.11924 -70.81545 39907 ft 383 kts 258°
2026-05-06 21:51 41.10260 -70.89451 39907 ft 383 kts 258°
2026-05-06 21:52 41.09066 -70.95143 39904 ft 382 kts 258°
2026-05-06 21:52 41.07641 -71.01885 39903 ft 382 kts 258°
2026-05-06 21:53 41.05956 -71.09790 39893 ft 382 kts 258°
2026-05-06 21:53 41.04752 -71.15433 39890 ft 381 kts 258°
2026-05-06 21:54 41.03307 -71.22195 39890 ft 380 kts 258°
2026-05-06 21:54 41.01871 -71.28900 39884 ft 380 kts 258°
2026-05-06 21:55 41.00418 -71.35662 39879 ft 380 kts 258°
2026-05-06 21:55 40.98724 -71.42280 39874 ft 381 kts 255°
2026-05-06 21:56 40.96662 -71.50008 39870 ft 380 kts 255°
2026-05-06 21:56 40.95208 -71.55489 39868 ft 380 kts 255°
2026-05-06 21:57 40.93451 -71.62107 39866 ft 380 kts 255°
2026-05-06 21:57 40.91734 -71.68685 39884 ft 381 kts 255°
2026-05-06 21:58 40.90015 -71.75314 39889 ft 380 kts 255°
2026-05-06 21:58 40.88286 -71.81956 39890 ft 379 kts 255°
2026-05-06 21:59 40.86567 -71.88540 39890 ft 379 kts 255°
2026-05-06 21:59 40.84846 -71.95113 39889 ft 378 kts 255°
2026-05-06 22:00 40.83120 -72.01691 39887 ft 379 kts 255°
2026-05-06 22:00 40.81084 -72.09425 39880 ft 379 kts 256°
2026-05-06 22:01 40.79643 -72.14883 39865 ft 377 kts 255°
2026-05-06 22:01 40.77924 -72.21382 39861 ft 376 kts 256°
2026-05-06 22:02 40.76347 -72.27919 39875 ft 375 kts 257°
2026-05-06 22:02 40.74776 -72.34460 39872 ft 374 kts 257°
2026-05-06 22:03 40.73193 -72.41007 39865 ft 374 kts 257°
2026-05-06 22:03 40.71608 -72.47537 39861 ft 374 kts 257°
2026-05-06 22:04 40.69996 -72.54059 39851 ft 375 kts 254°
2026-05-06 22:04 40.67267 -72.60009 39841 ft 391 kts 237°
2026-05-06 22:05 40.63198 -72.64945 39850 ft 400 kts 231°
2026-05-06 22:05 40.59056 -72.69680 39871 ft 402 kts 231°
2026-05-06 22:06 40.55053 -72.74259 39873 ft 401 kts 231°
2026-05-06 22:06 40.50729 -72.79206 39870 ft 400 kts 231°
2026-05-06 22:07 40.46525 -72.84009 39866 ft 400 kts 231°
2026-05-06 22:07 40.42327 -72.88786 39865 ft 400 kts 231°
2026-05-06 22:08 40.38117 -72.93578 39862 ft 400 kts 231°
2026-05-06 22:08 40.33913 -72.98355 39857 ft 400 kts 231°
2026-05-06 22:09 40.29717 -73.03117 39854 ft 399 kts 231°
2026-05-06 22:09 40.25541 -73.07848 39853 ft 398 kts 231°
2026-05-06 22:10 40.21336 -73.12605 39853 ft 398 kts 231°
2026-05-06 22:10 40.17159 -73.17323 39852 ft 398 kts 231°
2026-05-06 22:11 40.12970 -73.22044 39851 ft 397 kts 231°
2026-05-06 22:11 40.08115 -73.27508 39850 ft 396 kts 231°
2026-05-06 22:12 40.04632 -73.31415 39850 ft 396 kts 231°
2026-05-06 22:12 40.00477 -73.36066 39849 ft 396 kts 231°
2026-05-06 22:13 39.96310 -73.40724 39848 ft 396 kts 231°
2026-05-06 22:13 39.92122 -73.45400 39848 ft 396 kts 231°
2026-05-06 22:14 39.87949 -73.50051 39856 ft 397 kts 231°
2026-05-06 22:14 39.83738 -73.54736 39858 ft 399 kts 231°
2026-05-06 22:15 39.79546 -73.59406 39849 ft 398 kts 231°
2026-05-06 22:15 39.74649 -73.64850 39850 ft 397 kts 231°
2026-05-06 22:16 39.71166 -73.68717 39874 ft 399 kts 230°
2026-05-06 22:16 39.67057 -73.73270 39873 ft 398 kts 230°
2026-05-06 22:17 39.63003 -73.77756 39873 ft 398 kts 230°
2026-05-06 22:17 39.58764 -73.82439 39873 ft 398 kts 230°
2026-05-06 22:18 39.54538 -73.87099 39871 ft 398 kts 230°
2026-05-06 22:18 39.49614 -73.92521 39870 ft 398 kts 230°
2026-05-06 22:19 39.46113 -73.96368 39870 ft 399 kts 230°
2026-05-06 22:19 39.41867 -74.01028 39869 ft 400 kts 230°
2026-05-06 22:20 39.37620 -74.05677 39869 ft 400 kts 230°
2026-05-06 22:20 39.33356 -74.10335 39872 ft 400 kts 230°
2026-05-06 22:21 39.28390 -74.15751 39875 ft 401 kts 230°
2026-05-06 22:21 39.24123 -74.20395 39875 ft 402 kts 230°
2026-05-06 22:22 39.20565 -74.24263 39874 ft 403 kts 230°
2026-05-06 22:22 39.16253 -74.28944 39873 ft 405 kts 230°
2026-05-06 22:23 39.11951 -74.33604 39873 ft 406 kts 230°
2026-05-06 22:23 39.07623 -74.38285 39873 ft 406 kts 230°
2026-05-06 22:24 39.03406 -74.42840 39873 ft 407 kts 230°
2026-05-06 22:24 38.98325 -74.48317 39874 ft 409 kts 230°
2026-05-06 22:25 38.94684 -74.52236 39876 ft 410 kts 230°
2026-05-06 22:25 38.90437 -74.57082 39881 ft 409 kts 233°
2026-05-06 22:26 38.86255 -74.62019 39880 ft 410 kts 233°
2026-05-06 22:26 38.82034 -74.66974 39898 ft 412 kts 232°
2026-05-06 22:27 38.77794 -74.71932 39901 ft 412 kts 232°
2026-05-06 22:27 38.73533 -74.76826 39900 ft 416 kts 230°
2026-05-06 22:28 38.69030 -74.81474 39900 ft 417 kts 229°
2026-05-06 22:28 38.64499 -74.86158 39900 ft 418 kts 229°
2026-05-06 22:29 38.59251 -74.91586 39901 ft 418 kts 229°
2026-05-06 22:29 38.54743 -74.96268 39902 ft 418 kts 229°
2026-05-06 22:30 38.50259 -75.01073 39901 ft 416 kts 232°
2026-05-06 22:30 38.46660 -75.05135 39900 ft 416 kts 232°
2026-05-06 22:31 38.41203 -75.10424 39903 ft 423 kts 227°
2026-05-06 22:31 38.36484 -75.14857 39902 ft 423 kts 227°
2026-05-06 22:32 38.32550 -75.18563 39907 ft 423 kts 227°
2026-05-06 22:32 38.27790 -75.23056 39858 ft 418 kts 227°
2026-05-06 22:33 38.25471 -75.25243 39555 ft 416 kts 227°
2026-05-06 22:33 38.22362 -75.28176 38855 ft 421 kts 227°
2026-05-06 22:33 38.19992 -75.30415 38389 ft 423 kts 227°
2026-05-06 22:33 38.18443 -75.31881 38143 ft 422 kts 227°
2026-05-06 22:34 38.16110 -75.34088 37795 ft 417 kts 227°
2026-05-06 22:34 38.13756 -75.36320 37604 ft 424 kts 227°
2026-05-06 22:34 38.08973 -75.40826 37663 ft 426 kts 226°
2026-05-06 22:35 38.06569 -75.43074 37886 ft 428 kts 226°
2026-05-06 22:35 38.04272 -75.45463 37939 ft 421 kts 231°
2026-05-06 22:35 37.99988 -75.50485 37951 ft 418 kts 232°
2026-05-06 22:36 37.95015 -75.56319 37917 ft 418 kts 232°
2026-05-06 22:36 37.90753 -75.61298 37914 ft 419 kts 232°
2026-05-06 22:37 37.87162 -75.65505 37898 ft 420 kts 231°
2026-05-06 22:37 37.82079 -75.71407 37918 ft 422 kts 231°
2026-05-06 22:38 37.78480 -75.75602 37927 ft 422 kts 231°
2026-05-06 22:38 37.74178 -75.80617 37931 ft 418 kts 231°
2026-05-06 22:39 37.69179 -75.86420 37920 ft 413 kts 231°
2026-05-06 22:39 37.65657 -75.90494 37918 ft 413 kts 231°
2026-05-06 22:40 37.61427 -75.95377 37911 ft 413 kts 232°
2026-05-06 22:40 37.58921 -75.98875 37464 ft 398 kts 239°
2026-05-06 22:40 37.57764 -76.00678 36853 ft 405 kts 239°
2026-05-06 22:41 37.53540 -76.07280 34359 ft 423 kts 238°
2026-05-06 22:41 37.51721 -76.10103 33903 ft 412 kts 238°
2026-05-06 22:41 37.49943 -76.12852 33758 ft 396 kts 238°
2026-05-06 22:42 37.48190 -76.15573 33649 ft 402 kts 237°
2026-05-06 22:42 37.45200 -76.20212 33541 ft 414 kts 236°
2026-05-06 22:43 37.41502 -76.25931 33688 ft 429 kts 236°
2026-05-06 22:43 37.39011 -76.29768 33186 ft 423 kts 236°
2026-05-06 22:43 37.37167 -76.32610 32297 ft 429 kts 236°
2026-05-06 22:43 37.35893 -76.34574 31633 ft 435 kts 236°
2026-05-06 22:44 37.33982 -76.37516 30630 ft 435 kts 236°
2026-05-06 22:44 37.31456 -76.41394 29752 ft 423 kts 235°
2026-05-06 22:44 37.30241 -76.43256 29271 ft 416 kts 235°
2026-05-06 22:44 37.27809 -76.46986 28136 ft 408 kts 235°
2026-05-06 22:45 37.26607 -76.48826 27499 ft 405 kts 235°
2026-05-06 22:45 37.24847 -76.51544 26547 ft 402 kts 236°
2026-05-06 22:45 37.23119 -76.54250 25627 ft 398 kts 236°
2026-05-06 22:45 37.20841 -76.57813 24404 ft 391 kts 236°
2026-05-06 22:46 37.19170 -76.60420 23885 ft 383 kts 236°
2026-05-06 22:46 37.17469 -76.63088 23788 ft 393 kts 236°
2026-05-06 22:46 37.15745 -76.65785 23776 ft 397 kts 235°
2026-05-06 22:46 37.14582 -76.67602 23787 ft 400 kts 235°
2026-05-06 22:47 37.12819 -76.70348 23885 ft 402 kts 235°
2026-05-06 22:47 37.10480 -76.73981 23898 ft 403 kts 235°
2026-05-06 22:47 37.08713 -76.76717 23896 ft 403 kts 235°
2026-05-06 22:47 37.06949 -76.79449 23907 ft 403 kts 235°
2026-05-06 22:48 37.05782 -76.81256 23917 ft 403 kts 235°
2026-05-06 22:48 37.04029 -76.83972 23920 ft 403 kts 235°
2026-05-06 22:48 37.02249 -76.86726 23921 ft 403 kts 235°
2026-05-06 22:48 36.99897 -76.90363 23917 ft 403 kts 235°
2026-05-06 22:49 36.98719 -76.92184 23913 ft 403 kts 235°
2026-05-06 22:49 36.96943 -76.94927 23914 ft 404 kts 235°
2026-05-06 22:49 36.95180 -76.97646 23916 ft 404 kts 235°
2026-05-06 22:49 36.92813 -77.01287 23919 ft 404 kts 235°
2026-05-06 22:50 36.91645 -77.03083 23920 ft 404 kts 235°
2026-05-06 22:50 36.89868 -77.05813 23920 ft 404 kts 235°
2026-05-06 22:50 36.87477 -77.09483 23922 ft 404 kts 235°
2026-05-06 22:50 36.85705 -77.12203 23922 ft 404 kts 235°
2026-05-06 22:51 36.84512 -77.14032 23922 ft 404 kts 235°
2026-05-06 22:51 36.82753 -77.16724 23923 ft 405 kts 235°
2026-05-06 22:51 36.80360 -77.20380 23923 ft 405 kts 235°
2026-05-06 22:51 36.79194 -77.22163 23923 ft 405 kts 235°
2026-05-06 22:52 36.77377 -77.24900 23925 ft 405 kts 234°
2026-05-06 22:52 36.75566 -77.27593 23931 ft 406 kts 234°
2026-05-06 22:52 36.73766 -77.30267 23937 ft 406 kts 234°
2026-05-06 22:52 36.71936 -77.32986 23944 ft 406 kts 234°
2026-05-06 22:53 36.69514 -77.36583 23948 ft 406 kts 234°
2026-05-06 22:53 36.67689 -77.39288 23948 ft 407 kts 234°
2026-05-06 22:53 36.66496 -77.41055 23948 ft 407 kts 234°
2026-05-06 22:53 36.64049 -77.44679 23940 ft 406 kts 234°
2026-05-06 22:54 36.62264 -77.47318 23619 ft 395 kts 234°
2026-05-06 22:54 36.61097 -77.49043 23064 ft 391 kts 234°
2026-05-06 22:54 36.59358 -77.51616 22195 ft 390 kts 234°
2026-05-06 22:54 36.57640 -77.54157 21387 ft 386 kts 234°
2026-05-06 22:55 36.55341 -77.57553 20325 ft 381 kts 234°
2026-05-06 22:55 36.54214 -77.59216 19823 ft 378 kts 234°
2026-05-06 22:55 36.51974 -77.62521 18807 ft 373 kts 234°
2026-05-06 22:55 36.50309 -77.64977 18041 ft 370 kts 234°
2026-05-06 22:56 36.48666 -77.67397 17315 ft 366 kts 234°
2026-05-06 22:56 36.47026 -77.69810 16597 ft 362 kts 234°
2026-05-06 22:56 36.45422 -77.72168 15874 ft 359 kts 234°
2026-05-06 22:56 36.44353 -77.73740 15391 ft 357 kts 234°
2026-05-06 22:57 36.42236 -77.76852 14431 ft 352 kts 234°
2026-05-06 22:57 36.40655 -77.79173 13717 ft 349 kts 234°
2026-05-06 22:57 36.39103 -77.81450 13015 ft 345 kts 234°
2026-05-06 22:57 36.38076 -77.82954 12546 ft 343 kts 234°
2026-05-06 22:58 36.36541 -77.85206 11879 ft 339 kts 234°
2026-05-06 22:58 36.35013 -77.87447 11554 ft 338 kts 234°
2026-05-06 22:58 36.33490 -77.89675 11351 ft 340 kts 234°
2026-05-06 22:58 36.31952 -77.91924 11156 ft 339 kts 234°
2026-05-06 22:59 36.29975 -77.94807 10898 ft 321 kts 234°
2026-05-06 22:59 36.28550 -77.96883 10711 ft 309 kts 234°
2026-05-06 22:59 36.27198 -77.98856 10533 ft 298 kts 234°
2026-05-06 22:59 36.26310 -78.00157 10414 ft 291 kts 234°
2026-05-06 23:00 36.25021 -78.02041 10245 ft 281 kts 234°
2026-05-06 23:00 36.23761 -78.03875 10075 ft 272 kts 235°
2026-05-06 23:00 36.22783 -78.05775 9897 ft 259 kts 246°
2026-05-06 23:00 36.22018 -78.07777 9553 ft 258 kts 248°
2026-05-06 23:01 36.21272 -78.09812 9189 ft 259 kts 248°
2026-05-06 23:01 36.20541 -78.11829 8858 ft 257 kts 249°
2026-05-06 23:01 36.19651 -78.14523 8576 ft 249 kts 250°
2026-05-06 23:01 36.19006 -78.16477 8376 ft 244 kts 249°
2026-05-06 23:02 36.18359 -78.18425 8171 ft 242 kts 249°
2026-05-06 23:02 36.17934 -78.19696 8031 ft 241 kts 248°
2026-05-06 23:02 36.17078 -78.22235 7753 ft 240 kts 248°
2026-05-06 23:02 36.16645 -78.23528 7612 ft 240 kts 248°
2026-05-06 23:03 36.16009 -78.25414 7407 ft 239 kts 248°
2026-05-06 23:03 36.15159 -78.27969 7146 ft 237 kts 251°
2026-05-06 23:03 36.14747 -78.29912 7084 ft 232 kts 256°
2026-05-06 23:03 36.14516 -78.31200 7011 ft 227 kts 256°
2026-05-06 23:04 36.14071 -78.33718 6808 ft 219 kts 256°
2026-05-06 23:04 36.13855 -78.34931 6698 ft 216 kts 256°
2026-05-06 23:04 36.13535 -78.36729 6533 ft 212 kts 256°
2026-05-06 23:04 36.13114 -78.39080 6316 ft 206 kts 255°
2026-05-06 23:05 36.12908 -78.40220 6212 ft 204 kts 255°
2026-05-06 23:05 36.12601 -78.41920 6057 ft 202 kts 253°
2026-05-06 23:05 36.11774 -78.43956 5883 ft 200 kts 237°
2026-05-06 23:05 36.11262 -78.44926 5825 ft 200 kts 237°
2026-05-06 23:06 36.10487 -78.46366 5726 ft 199 kts 236°
2026-05-06 23:06 36.09713 -78.47789 5584 ft 199 kts 236°
2026-05-06 23:06 36.08960 -78.49210 5454 ft 199 kts 240°
2026-05-06 23:06 36.08361 -78.51366 5261 ft 200 kts 249°
2026-05-06 23:07 36.08004 -78.52428 5162 ft 199 kts 241°
2026-05-06 23:07 36.07240 -78.53851 5021 ft 197 kts 232°
2026-05-06 23:07 36.06080 -78.55492 4991 ft 188 kts 228°
2026-05-06 23:07 36.05482 -78.56270 5009 ft 182 kts 227°
2026-05-06 23:08 36.04601 -78.57372 4839 ft 178 kts 226°
2026-05-06 23:08 36.03741 -78.58431 4618 ft 175 kts 226°
2026-05-06 23:08 36.02595 -78.59849 4329 ft 172 kts 226°
2026-05-06 23:08 36.01754 -78.60886 4112 ft 167 kts 226°
2026-05-06 23:09 36.01220 -78.61548 3975 ft 165 kts 226°
2026-05-06 23:09 36.00398 -78.62561 3764 ft 164 kts 226°
2026-05-06 23:09 35.99593 -78.63557 3552 ft 164 kts 226°
2026-05-06 23:09 35.98786 -78.64548 3342 ft 164 kts 226°
2026-05-06 23:10 35.97700 -78.65901 3070 ft 165 kts 226°
2026-05-06 23:10 35.97214 -78.66508 2948 ft 167 kts 226°
2026-05-06 23:10 35.96118 -78.67855 2668 ft 167 kts 225°
2026-05-06 23:10 35.95765 -78.68291 2576 ft 166 kts 225°
2026-05-06 23:11 35.95027 -78.69202 2375 ft 164 kts 225°
2026-05-06 23:11 35.94230 -78.70180 2156 ft 152 kts 226°
2026-05-06 23:11 35.93522 -78.71056 1961 ft 141 kts 226°
2026-05-06 23:11 35.92656 -78.72118 1727 ft 134 kts 226°
2026-05-06 23:12 35.92112 -78.72788 1583 ft 137 kts 225°
2026-05-06 23:12 35.91424 -78.73636 1402 ft 140 kts 226°
2026-05-06 23:12 35.90725 -78.74495 1216 ft 141 kts 225°
2026-05-06 23:13 35.90029 -78.75350 1034 ft 139 kts 225°
2026-05-06 23:13 35.89343 -78.76189 852 ft 137 kts 226°
2026-05-06 23:13 35.88592 -78.77112 650 ft 137 kts 225°
2026-05-06 23:13 35.87913 -78.77947 467 ft 132 kts 225°
2026-05-06 23:14 35.87497 -78.78453 434 ft 119 kts 225°
2026-05-06 23:14 35.87001 -78.79065 419 ft 78 kts 224°
2026-05-06 23:14 35.86801 -78.79349 408 ft 23 kts 244°
2026-05-06 23:14 35.86780 -78.79439 405 ft 5 kts 260°
2026-05-06 23:15 35.86778 -78.79456 404 ft 0 kts 260°
2026-05-06 23:16 35.86784 -78.79483 403 ft 8 kts 290°
2026-05-06 23:16 35.86820 -78.79574 409 ft 11 kts 303°
2026-05-06 23:16 35.86894 -78.79675 413 ft 23 kts 312°
2026-05-06 23:16 35.87065 -78.79880 413 ft 20 kts 316°
2026-05-06 23:17 35.87156 -78.79972 413 ft 6 kts 326°
2026-05-06 23:17 35.87188 -78.79997 410 ft 12 kts 329°
2026-05-06 23:17 35.87266 -78.80048 403 ft 1 kts 341°
2026-05-06 23:17 35.87273 -78.80051 403 ft 0 kts 341°
2026-05-06 23:18 35.87283 -78.80055 404 ft 9 kts 341°
2026-05-06 23:18 35.87307 -78.80063 381 ft 1 kts 343°
2026-05-06 23:18 35.87311 -78.80064 381 ft 3 kts 345°
2026-05-06 23:18 35.87363 -78.80029 381 ft 16 kts 54°
2026-05-06 23:19 35.87416 -78.79937 383 ft 20 kts 50°
2026-05-06 23:19 35.87511 -78.79820 387 ft 12 kts 44°
2026-05-06 23:19 35.87514 -78.79761 388 ft 7 kts 91°
2026-05-06 23:19 35.87515 -78.79692 390 ft 0 kts 88°